DAL41 KLAX-YSSY

Flight info

Callsign DAL41
Flight time 14h 22m
Altitude 34000
Route SUMMR2 FICKY B581 CAMOS DCT 10N150W/N0498F360 04N155W 02S160W 07S165W/N0491F380 12S170W DCT FA DCT VIMEK DCT 21S180W DCT DOLSI/N0487F400 DCT 28S170E 30S165E 31S163E 32S160E DCT WARTY DCT RIKNI N774 MARLN
Aircraft A359/H-SDE2E3GHIJ3J4J5LM1ORWXY/LB1D1

Departure

Time 2026-04-21 05:39
Airport Los Angeles International Airport (KLAX)

Arrival

Time 2026-04-21 20:02
Airport Sydney Kingsford Smith International Airport (YSSY)
Time Latitude Longitude Altitude Speed Heading
2026-04-21 04:53 33.94692 -118.40828 102 ft 0 kts 137°
2026-04-21 05:30 33.94698 -118.40834 104 ft 1 kts 136°
2026-04-21 05:30 33.94706 -118.40844 105 ft 1 kts 136°
2026-04-21 05:30 33.94713 -118.40851 102 ft 2 kts 136°
2026-04-21 05:30 33.94724 -118.40865 102 ft 2 kts 137°
2026-04-21 05:31 33.94736 -118.40879 102 ft 2 kts 123°
2026-04-21 05:31 33.94744 -118.40897 101 ft 2 kts 108°
2026-04-21 05:31 33.94747 -118.40916 104 ft 2 kts 89°
2026-04-21 05:31 33.94746 -118.40935 100 ft 1 kts 82°
2026-04-21 05:32 33.94745 -118.40936 100 ft 0 kts 82°
2026-04-21 05:33 33.94746 -118.40934 100 ft 2 kts 83°
2026-04-21 05:33 33.94755 -118.40902 104 ft 4 kts 57°
2026-04-21 05:34 33.94768 -118.40893 104 ft 0 kts 24°
2026-04-21 05:34 33.94768 -118.40892 104 ft 0 kts 24°
2026-04-21 05:34 33.94784 -118.40886 105 ft 5 kts 18°
2026-04-21 05:34 33.94812 -118.40873 106 ft 3 kts 28°
2026-04-21 05:35 33.94833 -118.40838 106 ft 9 kts 67°
2026-04-21 05:35 33.94849 -118.40730 106 ft 17 kts 82°
2026-04-21 05:35 33.94868 -118.40587 106 ft 17 kts 81°
2026-04-21 05:35 33.94883 -118.40444 106 ft 17 kts 84°
2026-04-21 05:36 33.94895 -118.40301 106 ft 17 kts 84°
2026-04-21 05:36 33.94909 -118.40157 106 ft 17 kts 83°
2026-04-21 05:36 33.94924 -118.40014 105 ft 17 kts 82°
2026-04-21 05:36 33.94935 -118.39950 106 ft 5 kts 70°
2026-04-21 05:37 33.94954 -118.39921 107 ft 4 kts 38°
2026-04-21 05:37 33.94974 -118.39912 109 ft 3 kts 15°
2026-04-21 05:37 33.94983 -118.39910 111 ft 0 kts
2026-04-21 05:37 33.95007 -118.39911 112 ft 8 kts 355°
2026-04-21 05:38 33.95038 -118.39939 110 ft 3 kts 287°
2026-04-21 05:38 33.95038 -118.39981 111 ft 6 kts 265°
2026-04-21 05:38 33.95030 -118.40073 115 ft 26 kts 263°
2026-04-21 05:38 33.94979 -118.40576 111 ft 95 kts 263°
2026-04-21 05:39 33.94872 -118.41601 111 ft 154 kts 263°
2026-04-21 05:39 33.94720 -118.42982 605 ft 166 kts 262°
2026-04-21 05:39 33.94572 -118.44368 1341 ft 171 kts 263°
2026-04-21 05:39 33.94429 -118.45852 1594 ft 184 kts 264°
2026-04-21 05:40 33.94292 -118.47441 1741 ft 197 kts 266°
2026-04-21 05:40 33.94234 -118.49164 1818 ft 216 kts 269°
2026-04-21 05:40 33.94199 -118.51032 1977 ft 230 kts 269°
2026-04-21 05:40 33.94095 -118.53021 2171 ft 245 kts 264°
2026-04-21 05:41 33.93926 -118.55070 2504 ft 253 kts 264°
2026-04-21 05:41 33.93747 -118.57195 2900 ft 257 kts 264°
2026-04-21 05:41 33.93571 -118.59354 3338 ft 261 kts 264°
2026-04-21 05:41 33.93396 -118.61535 3792 ft 262 kts 263°
2026-04-21 05:42 33.93224 -118.63714 4294 ft 262 kts 263°
2026-04-21 05:42 33.93053 -118.65909 4737 ft 265 kts 263°
2026-04-21 05:42 33.92881 -118.68126 5177 ft 266 kts 263°
2026-04-21 05:42 33.92708 -118.70348 5620 ft 268 kts 262°
2026-04-21 05:43 33.92535 -118.72558 6065 ft 269 kts 262°
2026-04-21 05:43 33.92359 -118.74804 6506 ft 270 kts 262°
2026-04-21 05:43 33.92183 -118.77059 6919 ft 272 kts 262°
2026-04-21 05:43 33.92005 -118.79326 7358 ft 272 kts 261°
2026-04-21 05:44 33.91826 -118.81603 7771 ft 274 kts 261°
2026-04-21 05:44 33.91723 -118.83898 8205 ft 277 kts 266°
2026-04-21 05:44 33.91769 -118.86223 8641 ft 278 kts 268°
2026-04-21 05:44 33.91843 -118.88528 9063 ft 280 kts 268°
2026-04-21 05:45 33.91919 -118.90909 9500 ft 281 kts 268°
2026-04-21 05:45 33.91990 -118.93235 9937 ft 283 kts 267°
2026-04-21 05:45 33.92061 -118.95621 10219 ft 289 kts 267°
2026-04-21 05:45 33.92130 -118.98081 10373 ft 300 kts 267°
2026-04-21 05:46 33.92153 -119.00636 10517 ft 309 kts 262°
2026-04-21 05:46 33.91698 -119.03172 10646 ft 313 kts 245°
2026-04-21 05:46 33.90848 -119.05617 10830 ft 322 kts 243°
2026-04-21 05:46 33.90239 -119.07261 10934 ft 328 kts 243°
2026-04-21 05:47 33.88976 -119.10679 11146 ft 340 kts 243°
2026-04-21 05:47 33.88022 -119.13279 11300 ft 348 kts 243°
2026-04-21 05:47 33.87036 -119.15976 11473 ft 356 kts 243°
2026-04-21 05:47 33.86028 -119.18737 11628 ft 364 kts 243°
2026-04-21 05:48 33.85001 -119.21552 11828 ft 370 kts 243°
2026-04-21 05:48 33.83967 -119.24389 12140 ft 372 kts 243°
2026-04-21 05:48 33.82925 -119.27243 12480 ft 374 kts 243°
2026-04-21 05:48 33.81893 -119.30067 12803 ft 375 kts 243°
2026-04-21 05:49 33.80718 -119.32865 13135 ft 374 kts 236°
2026-04-21 05:49 33.79197 -119.35387 13461 ft 372 kts 226°
2026-04-21 05:49 33.77331 -119.37534 13789 ft 371 kts 218°
2026-04-21 05:49 33.75305 -119.39458 14096 ft 372 kts 216°
2026-04-21 05:50 33.73946 -119.40720 14274 ft 374 kts 216°
2026-04-21 05:50 33.71187 -119.43286 14628 ft 376 kts 217°
2026-04-21 05:50 33.69817 -119.44564 14805 ft 377 kts 217°
2026-04-21 05:50 33.67061 -119.47140 15170 ft 380 kts 217°
2026-04-21 05:51 33.64978 -119.49089 15437 ft 381 kts 217°
2026-04-21 05:51 33.62874 -119.51056 15701 ft 383 kts 217°
2026-04-21 05:51 33.60769 -119.53025 15985 ft 385 kts 217°
2026-04-21 05:51 33.58654 -119.55001 16261 ft 387 kts 217°
2026-04-21 05:52 33.57245 -119.56318 16433 ft 388 kts 217°
2026-04-21 05:52 33.55117 -119.58304 16709 ft 389 kts 217°
2026-04-21 05:52 33.52974 -119.60304 16971 ft 391 kts 217°
2026-04-21 05:52 33.50821 -119.62311 17227 ft 393 kts 217°
2026-04-21 05:53 33.48669 -119.64317 17486 ft 394 kts 217°
2026-04-21 05:53 33.45783 -119.67005 17838 ft 397 kts 217°
2026-04-21 05:53 33.44313 -119.68373 17995 ft 398 kts 217°
2026-04-21 05:53 33.41411 -119.71072 18337 ft 400 kts 217°
2026-04-21 05:54 33.39955 -119.72425 18477 ft 401 kts 217°
2026-04-21 05:54 33.37749 -119.74475 18678 ft 403 kts 217°
2026-04-21 05:54 33.35528 -119.76536 18881 ft 404 kts 217°
2026-04-21 05:54 33.33305 -119.78599 19104 ft 405 kts 217°
2026-04-21 05:55 33.30344 -119.81344 19371 ft 407 kts 217°
2026-04-21 05:55 33.28829 -119.82747 19506 ft 408 kts 218°
2026-04-21 05:55 33.26579 -119.84830 19714 ft 410 kts 218°
2026-04-21 05:55 33.23588 -119.87598 19991 ft 412 kts 218°
2026-04-21 05:56 33.22089 -119.88984 20132 ft 412 kts 218°
2026-04-21 05:56 33.19817 -119.91083 20353 ft 414 kts 218°
2026-04-21 05:56 33.17532 -119.93193 20550 ft 415 kts 218°
2026-04-21 05:56 33.15240 -119.95308 20768 ft 417 kts 218°
2026-04-21 05:57 33.12945 -119.97424 20982 ft 419 kts 218°
2026-04-21 05:57 33.10639 -119.99550 21178 ft 420 kts 218°
2026-04-21 05:57 33.08319 -120.01686 21406 ft 421 kts 218°
2026-04-21 05:57 33.05989 -120.03830 21611 ft 423 kts 218°
2026-04-21 05:58 33.03657 -120.05975 21808 ft 425 kts 218°
2026-04-21 05:58 33.01346 -120.08099 22014 ft 426 kts 218°
2026-04-21 05:58 32.98993 -120.10259 22221 ft 428 kts 218°
2026-04-21 05:58 32.96632 -120.12426 22447 ft 429 kts 219°
2026-04-21 05:59 32.94264 -120.14598 22636 ft 431 kts 219°
2026-04-21 05:59 32.91887 -120.16776 22847 ft 432 kts 219°
2026-04-21 05:59 32.89498 -120.18963 23046 ft 433 kts 219°
2026-04-21 06:00 32.84702 -120.23351 23465 ft 436 kts 219°
2026-04-21 06:00 32.82294 -120.25552 23664 ft 438 kts 219°
2026-04-21 06:00 32.79908 -120.27731 23844 ft 439 kts 219°
2026-04-21 06:00 32.77481 -120.29945 24029 ft 440 kts 219°
2026-04-21 06:01 32.75055 -120.32157 24223 ft 441 kts 219°
2026-04-21 06:01 32.72623 -120.34374 24415 ft 441 kts 219°
2026-04-21 06:01 32.70182 -120.36597 24592 ft 443 kts 219°
2026-04-21 06:01 32.67740 -120.38819 24759 ft 444 kts 219°
2026-04-21 06:02 32.65281 -120.41055 24945 ft 445 kts 219°
2026-04-21 06:02 32.62825 -120.43287 25130 ft 445 kts 219°
2026-04-21 06:02 32.60364 -120.45522 25316 ft 446 kts 219°
2026-04-21 06:02 32.57929 -120.47739 25507 ft 447 kts 219°
2026-04-21 06:03 32.55457 -120.49984 25690 ft 448 kts 219°
2026-04-21 06:03 32.52985 -120.52224 25893 ft 449 kts 219°
2026-04-21 06:03 32.50500 -120.54474 26087 ft 450 kts 219°
2026-04-21 06:03 32.48013 -120.56725 26279 ft 451 kts 219°
2026-04-21 06:04 32.45515 -120.58986 26492 ft 451 kts 219°
2026-04-21 06:04 32.43022 -120.61240 26688 ft 452 kts 219°
2026-04-21 06:04 32.40548 -120.63476 26883 ft 453 kts 219°
2026-04-21 06:04 32.38046 -120.65736 27075 ft 454 kts 219°
2026-04-21 06:05 32.35530 -120.68007 27269 ft 455 kts 219°
2026-04-21 06:05 32.33011 -120.70278 27442 ft 456 kts 219°
2026-04-21 06:05 32.30490 -120.72550 27627 ft 457 kts 219°
2026-04-21 06:05 32.27948 -120.74840 27809 ft 458 kts 219°
2026-04-21 06:06 32.25412 -120.77122 27991 ft 459 kts 219°
2026-04-21 06:06 32.22907 -120.79374 28177 ft 460 kts 219°
2026-04-21 06:06 32.20359 -120.81664 28362 ft 461 kts 219°
2026-04-21 06:06 32.17803 -120.83959 28529 ft 462 kts 219°
2026-04-21 06:07 32.15246 -120.86254 28682 ft 463 kts 219°
2026-04-21 06:07 32.12677 -120.88557 28830 ft 464 kts 219°
2026-04-21 06:07 32.10114 -120.90854 29070 ft 463 kts 219°
2026-04-21 06:07 32.07550 -120.93149 29316 ft 462 kts 219°
2026-04-21 06:08 32.04997 -120.95433 29568 ft 461 kts 219°
2026-04-21 06:08 32.02449 -120.97712 29818 ft 460 kts 219°
2026-04-21 06:08 31.99902 -120.99987 30068 ft 459 kts 219°
2026-04-21 06:08 31.97396 -121.02225 30268 ft 458 kts 219°
2026-04-21 06:09 31.94854 -121.04493 30457 ft 458 kts 219°
2026-04-21 06:09 31.92314 -121.06758 30642 ft 458 kts 219°
2026-04-21 06:09 31.89775 -121.09020 30840 ft 457 kts 219°
2026-04-21 06:09 31.87243 -121.11274 31033 ft 457 kts 219°
2026-04-21 06:10 31.84714 -121.13524 31233 ft 456 kts 219°
2026-04-21 06:10 31.82185 -121.15773 31412 ft 456 kts 219°
2026-04-21 06:10 31.79689 -121.17990 31576 ft 456 kts 219°
2026-04-21 06:10 31.77163 -121.20233 31743 ft 455 kts 219°
2026-04-21 06:11 31.74635 -121.22476 31925 ft 455 kts 219°
2026-04-21 06:11 31.72112 -121.24713 32079 ft 455 kts 219°
2026-04-21 06:11 31.69587 -121.26950 32246 ft 454 kts 220°
2026-04-21 06:11 31.67066 -121.29182 32405 ft 454 kts 220°
2026-04-21 06:12 31.64547 -121.31411 32562 ft 454 kts 220°
2026-04-21 06:12 31.62030 -121.33637 32707 ft 454 kts 220°
2026-04-21 06:12 31.59537 -121.35842 32878 ft 453 kts 220°
2026-04-21 06:12 31.57125 -121.38213 32993 ft 451 kts 226°
2026-04-21 06:13 31.55037 -121.40934 33132 ft 448 kts 235°
2026-04-21 06:13 31.53301 -121.43955 33283 ft 446 kts 239°
2026-04-21 06:13 31.51694 -121.47060 33434 ft 445 kts 240°
2026-04-21 06:13 31.50131 -121.50188 33602 ft 445 kts 241°
2026-04-21 06:14 31.48584 -121.53321 33755 ft 444 kts 241°
2026-04-21 06:14 31.47037 -121.56447 33929 ft 443 kts 241°
2026-04-21 06:14 31.45505 -121.59524 34038 ft 444 kts 241°
2026-04-21 06:15 31.42357 -121.65793 34058 ft 449 kts 241°
2026-04-21 06:15 31.39170 -121.72094 34075 ft 449 kts 241°
2026-04-21 06:16 31.35986 -121.78371 34058 ft 448 kts 241°
2026-04-21 06:16 31.32825 -121.84596 34073 ft 448 kts 241°
2026-04-21 06:17 31.29642 -121.90857 34052 ft 448 kts 241°
2026-04-21 06:17 31.26459 -121.97109 34062 ft 447 kts 241°
2026-04-21 06:18 31.23274 -122.03355 34062 ft 447 kts 241°
2026-04-21 06:18 31.20109 -122.09551 34065 ft 447 kts 241°
2026-04-21 06:19 31.16923 -122.15777 34065 ft 447 kts 241°
2026-04-21 06:19 31.13736 -122.21997 34065 ft 446 kts 241°
2026-04-21 06:20 31.10547 -122.28210 34062 ft 446 kts 241°
2026-04-21 06:20 31.07351 -122.34426 34062 ft 446 kts 241°
2026-04-21 06:21 31.04179 -122.40586 34063 ft 446 kts 240°
2026-04-21 06:21 31.00980 -122.46789 34060 ft 446 kts 240°
2026-04-21 06:22 30.97782 -122.52979 34057 ft 446 kts 240°
2026-04-21 06:22 30.94578 -122.59171 34060 ft 446 kts 240°
2026-04-21 06:23 30.91394 -122.65316 34062 ft 446 kts 240°
2026-04-21 06:23 30.88188 -122.71493 34059 ft 446 kts 240°
2026-04-21 06:24 30.84984 -122.77655 34059 ft 445 kts 240°
2026-04-21 06:24 30.81790 -122.83789 34062 ft 445 kts 240°
2026-04-21 06:25 30.78581 -122.89943 34060 ft 445 kts 240°
2026-04-21 06:25 30.75365 -122.96101 34061 ft 445 kts 240°
2026-04-21 06:26 30.72152 -123.02241 34059 ft 445 kts 240°
2026-04-21 06:26 30.68936 -123.08380 34064 ft 445 kts 240°
2026-04-21 06:27 30.65737 -123.14475 34061 ft 445 kts 240°
2026-04-21 06:27 30.62489 -123.20581 34061 ft 444 kts 240°
2026-04-21 06:28 30.59222 -123.26681 34060 ft 444 kts 240°
2026-04-21 06:28 30.55968 -123.32760 34063 ft 444 kts 240°
2026-04-21 06:29 30.52731 -123.38807 34064 ft 444 kts 240°
2026-04-21 06:29 30.49475 -123.44883 34067 ft 443 kts 240°
2026-04-21 06:30 30.46214 -123.50960 34065 ft 443 kts 240°
2026-04-21 06:30 30.42957 -123.57017 34065 ft 443 kts 240°
2026-04-21 06:31 30.39716 -123.63037 34065 ft 443 kts 240°
2026-04-21 06:31 30.36453 -123.69089 34070 ft 443 kts 240°
2026-04-21 06:32 30.33189 -123.75132 34068 ft 443 kts 240°
2026-04-21 06:32 30.29921 -123.81174 34069 ft 443 kts 240°
2026-04-21 06:33 30.26651 -123.87211 34071 ft 442 kts 240°
2026-04-21 06:33 30.23402 -123.93200 34071 ft 442 kts 240°
2026-04-21 06:34 30.20131 -123.99222 34074 ft 442 kts 240°
2026-04-21 06:34 30.16858 -124.05235 34077 ft 442 kts 240°
2026-04-21 06:35 30.13609 -124.11197 34071 ft 442 kts 240°
2026-04-21 06:35 30.10332 -124.17202 34070 ft 442 kts 241°
2026-04-21 06:36 30.07056 -124.23196 34075 ft 441 kts 241°
2026-04-21 06:36 30.03774 -124.29191 34073 ft 441 kts 241°
2026-04-21 06:37 30.00517 -124.35131 34078 ft 441 kts 241°
2026-04-21 06:37 29.97238 -124.41104 34072 ft 441 kts 241°
2026-04-21 06:38 29.93956 -124.47072 34077 ft 441 kts 241°
2026-04-21 06:38 29.90671 -124.53037 34078 ft 441 kts 241°
2026-04-21 06:39 29.87382 -124.59002 34078 ft 440 kts 241°
2026-04-21 06:39 29.84093 -124.64956 34078 ft 440 kts 241°
2026-04-21 06:40 29.80829 -124.70858 34078 ft 440 kts 242°
2026-04-21 06:40 29.77534 -124.76807 34080 ft 440 kts 242°
2026-04-21 06:41 29.74244 -124.82738 34081 ft 440 kts 242°
2026-04-21 06:41 29.70950 -124.88667 34082 ft 440 kts 242°
2026-04-21 06:42 29.67676 -124.94551 34081 ft 439 kts 242°
2026-04-21 06:42 29.64379 -125.00469 34083 ft 439 kts 242°
2026-04-21 06:43 29.61084 -125.06376 34086 ft 439 kts 242°
2026-04-21 06:43 29.57788 -125.12273 34086 ft 439 kts 242°
2026-04-21 06:44 29.54510 -125.18132 34084 ft 438 kts 242°
2026-04-21 06:44 29.51213 -125.24017 34085 ft 438 kts 242°
2026-04-21 06:45 29.47910 -125.29903 34087 ft 438 kts 242°
2026-04-21 06:45 29.44610 -125.35773 34085 ft 438 kts 242°
2026-04-21 06:46 29.41328 -125.41606 34087 ft 438 kts 242°
2026-04-21 06:46 29.38021 -125.47475 34087 ft 438 kts 242°
2026-04-21 06:47 29.34716 -125.53330 34089 ft 438 kts 242°
2026-04-21 06:47 29.31407 -125.59185 34088 ft 438 kts 242°
2026-04-21 06:48 29.28119 -125.64995 34090 ft 438 kts 242°
2026-04-21 06:48 29.24805 -125.70841 34086 ft 438 kts 242°
2026-04-21 06:49 29.21490 -125.76682 34090 ft 438 kts 242°
2026-04-21 06:49 29.18171 -125.82521 34092 ft 438 kts 242°
2026-04-21 06:50 29.14850 -125.88356 34086 ft 437 kts 242°
2026-04-21 06:50 29.11550 -125.94145 34093 ft 437 kts 242°
2026-04-21 06:51 29.08224 -125.99972 34091 ft 437 kts 242°
2026-04-21 06:51 29.04900 -126.05788 34093 ft 437 kts 242°
2026-04-21 06:52 29.01590 -126.11571 34094 ft 437 kts 242°
2026-04-21 06:52 28.98259 -126.17383 34103 ft 437 kts 242°
2026-04-21 06:53 28.94925 -126.23192 34094 ft 437 kts 242°
2026-04-21 06:53 28.91589 -126.28995 34095 ft 437 kts 242°
2026-04-21 06:54 28.88272 -126.34758 34096 ft 437 kts 242°
2026-04-21 06:54 28.84937 -126.40544 34103 ft 437 kts 241°
2026-04-21 06:55 28.81588 -126.46347 34091 ft 437 kts 241°
2026-04-21 06:55 28.78243 -126.52135 34099 ft 437 kts 241°
2026-04-21 06:56 28.74898 -126.57914 34082 ft 437 kts 241°
2026-04-21 06:56 28.71573 -126.63651 34097 ft 437 kts 241°
2026-04-21 06:57 28.68223 -126.69424 34098 ft 436 kts 241°
2026-04-21 06:57 28.64875 -126.75184 34096 ft 436 kts 241°
2026-04-21 06:58 28.61526 -126.80939 34098 ft 436 kts 241°
2026-04-21 06:58 28.58202 -126.86644 34100 ft 436 kts 241°
2026-04-21 06:59 28.54852 -126.92384 34105 ft 435 kts 241°
2026-04-21 06:59 28.51504 -126.98113 34103 ft 435 kts 241°
2026-04-21 07:00 28.48153 -127.03841 34098 ft 435 kts 241°
2026-04-21 07:00 28.44823 -127.09522 34099 ft 435 kts 241°
2026-04-21 07:01 28.41471 -127.15237 34102 ft 435 kts 241°
2026-04-21 07:01 28.36435 -127.23806 34101 ft 435 kts 241°
2026-04-21 07:02 28.33097 -127.29477 34103 ft 435 kts 241°
2026-04-21 07:02 28.29732 -127.35185 34101 ft 435 kts 241°
2026-04-21 07:03 28.26365 -127.40891 34100 ft 435 kts 241°
2026-04-21 07:03 28.22989 -127.46603 34102 ft 436 kts 241°
2026-04-21 07:04 28.19634 -127.52274 34105 ft 436 kts 241°
2026-04-21 07:04 28.16258 -127.57971 34103 ft 436 kts 241°
2026-04-21 07:05 28.12872 -127.63679 34105 ft 437 kts 241°
2026-04-21 07:05 28.09477 -127.69393 34107 ft 437 kts 241°
2026-04-21 07:06 28.06077 -127.75107 34111 ft 438 kts 241°
2026-04-21 07:06 28.02693 -127.80786 34107 ft 438 kts 241°
2026-04-21 07:07 27.99282 -127.86504 34109 ft 438 kts 241°
2026-04-21 07:07 27.95869 -127.92219 34107 ft 438 kts 240°
2026-04-21 07:08 27.92453 -127.97929 34108 ft 439 kts 240°
2026-04-21 07:08 27.89058 -128.03597 34110 ft 439 kts 240°
2026-04-21 07:09 27.85631 -128.09312 34114 ft 439 kts 240°
2026-04-21 07:09 27.82205 -128.15017 34111 ft 439 kts 240°
2026-04-21 07:10 27.78777 -128.20719 34109 ft 439 kts 240°
2026-04-21 07:10 27.75369 -128.26380 34111 ft 439 kts 240°
2026-04-21 07:11 27.71940 -128.32067 34113 ft 438 kts 240°
2026-04-21 07:11 27.68505 -128.37758 34114 ft 438 kts 240°
2026-04-21 07:12 27.65075 -128.43433 34126 ft 438 kts 240°
2026-04-21 07:12 27.61667 -128.49063 34111 ft 438 kts 240°
2026-04-21 07:13 27.58233 -128.54731 34124 ft 437 kts 240°
2026-04-21 07:13 27.54804 -128.60382 34122 ft 437 kts 240°
2026-04-21 07:14 27.51369 -128.66035 34113 ft 437 kts 240°
2026-04-21 07:14 27.47964 -128.71633 34117 ft 436 kts 240°
2026-04-21 07:15 27.44533 -128.77265 34118 ft 436 kts 240°
2026-04-21 07:15 27.41105 -128.82887 34117 ft 436 kts 240°
2026-04-21 07:16 27.37673 -128.88508 34123 ft 435 kts 240°
2026-04-21 07:16 27.34265 -128.94082 34126 ft 435 kts 240°
2026-04-21 07:17 27.30830 -128.99691 34119 ft 435 kts 240°
2026-04-21 07:17 27.27395 -129.05296 34120 ft 436 kts 240°
2026-04-21 07:18 27.23977 -129.10864 34123 ft 436 kts 239°
2026-04-21 07:18 27.20531 -129.16472 34123 ft 436 kts 239°
2026-04-21 07:19 27.17081 -129.22079 34125 ft 436 kts 239°
2026-04-21 07:19 27.13627 -129.27684 34124 ft 437 kts 239°
2026-04-21 07:20 27.10191 -129.33255 34124 ft 437 kts 239°
2026-04-21 07:20 27.06722 -129.38871 34125 ft 438 kts 239°
2026-04-21 07:21 27.03250 -129.44486 34128 ft 438 kts 239°
2026-04-21 07:21 26.99773 -129.50100 34127 ft 439 kts 239°
2026-04-21 07:22 26.96313 -129.55681 34129 ft 439 kts 239°
2026-04-21 07:22 26.92824 -129.61300 34132 ft 439 kts 239°
2026-04-21 07:23 26.89334 -129.66915 34129 ft 440 kts 239°
2026-04-21 07:23 26.85833 -129.72542 34129 ft 440 kts 239°
2026-04-21 07:24 26.82353 -129.78126 34132 ft 440 kts 239°
2026-04-21 07:24 26.78843 -129.83751 34132 ft 441 kts 239°
2026-04-21 07:25 26.75328 -129.89378 34133 ft 441 kts 239°
2026-04-21 07:25 26.71805 -129.95010 34137 ft 442 kts 239°
2026-04-21 07:26 26.68302 -130.00605 34136 ft 442 kts 239°
2026-04-21 07:26 26.64769 -130.06238 34132 ft 443 kts 239°
2026-04-21 07:27 26.61234 -130.11869 34128 ft 443 kts 239°
2026-04-21 07:27 26.57690 -130.17506 34131 ft 443 kts 239°
2026-04-21 07:28 26.54167 -130.23104 34136 ft 443 kts 239°
2026-04-21 07:28 26.50616 -130.28738 34134 ft 443 kts 239°
2026-04-21 07:29 26.47068 -130.34362 34135 ft 443 kts 239°
2026-04-21 07:29 26.43536 -130.39954 34136 ft 443 kts 240°
2026-04-21 07:30 26.39983 -130.45571 34138 ft 443 kts 240°
2026-04-21 07:30 26.36427 -130.51185 34137 ft 443 kts 240°
2026-04-21 07:31 26.32875 -130.56789 34133 ft 442 kts 240°
2026-04-21 07:31 26.29346 -130.62346 34138 ft 442 kts 239°
2026-04-21 07:32 26.25800 -130.67926 34137 ft 441 kts 239°
2026-04-21 07:32 26.22249 -130.73506 34132 ft 441 kts 239°
2026-04-21 07:33 26.18700 -130.79076 34138 ft 441 kts 239°
2026-04-21 07:33 26.15152 -130.84638 34136 ft 441 kts 239°
2026-04-21 07:34 26.11629 -130.90154 34136 ft 440 kts 239°
2026-04-21 07:34 26.08082 -130.95701 34138 ft 440 kts 239°
2026-04-21 07:35 26.04530 -131.01250 34154 ft 440 kts 239°
2026-04-21 07:35 26.01007 -131.06747 34135 ft 440 kts 239°
2026-04-21 07:36 25.97456 -131.12279 34146 ft 440 kts 239°
2026-04-21 07:36 25.93905 -131.17806 34138 ft 439 kts 239°
2026-04-21 07:37 25.90349 -131.23334 34139 ft 439 kts 239°
2026-04-21 07:37 25.86795 -131.28851 34139 ft 439 kts 239°
2026-04-21 07:38 25.83262 -131.34330 34138 ft 439 kts 239°
2026-04-21 07:38 25.79706 -131.39838 34139 ft 439 kts 239°
2026-04-21 07:39 25.76147 -131.45344 34140 ft 439 kts 239°
2026-04-21 07:39 25.72588 -131.50844 34137 ft 439 kts 239°
2026-04-21 07:40 25.69050 -131.56306 34140 ft 439 kts 239°
2026-04-21 07:40 25.65480 -131.61809 34137 ft 439 kts 239°
2026-04-21 07:41 25.61911 -131.67305 34139 ft 439 kts 239°
2026-04-21 07:41 25.58361 -131.72766 34141 ft 440 kts 239°
2026-04-21 07:42 25.54786 -131.78259 34139 ft 440 kts 238°
2026-04-21 07:42 25.51205 -131.83754 34139 ft 440 kts 238°
2026-04-21 07:43 25.47617 -131.89253 34143 ft 440 kts 238°
2026-04-21 07:43 25.44027 -131.94748 34143 ft 441 kts 238°
2026-04-21 07:44 25.40459 -132.00204 34140 ft 441 kts 238°
2026-04-21 07:44 25.36862 -132.05698 34142 ft 441 kts 238°
2026-04-21 07:45 25.33262 -132.11190 34140 ft 441 kts 238°
2026-04-21 07:45 25.29684 -132.16643 34142 ft 441 kts 238°
2026-04-21 07:46 25.26082 -132.22130 34142 ft 441 kts 238°
2026-04-21 07:46 25.22479 -132.27611 34139 ft 441 kts 238°
2026-04-21 07:47 25.18869 -132.33095 34143 ft 441 kts 238°
2026-04-21 07:47 25.15287 -132.38533 34144 ft 441 kts 238°
2026-04-21 07:48 25.11682 -132.43999 34143 ft 441 kts 238°
2026-04-21 07:48 25.08064 -132.49478 34142 ft 441 kts 238°
2026-04-21 07:49 25.04450 -132.54945 34143 ft 441 kts 238°
2026-04-21 07:49 25.00859 -132.60372 34145 ft 441 kts 238°
2026-04-21 07:50 24.97239 -132.65835 34142 ft 441 kts 238°
2026-04-21 07:50 24.93618 -132.71294 34146 ft 441 kts 238°
2026-04-21 07:51 24.90018 -132.76716 34142 ft 441 kts 238°
2026-04-21 07:51 24.86389 -132.82174 34141 ft 442 kts 238°
2026-04-21 07:52 24.82757 -132.87630 34140 ft 442 kts 238°
2026-04-21 07:52 24.79122 -132.93085 34138 ft 442 kts 238°
2026-04-21 07:53 24.75484 -132.98540 34148 ft 443 kts 238°
2026-04-21 07:53 24.71862 -133.03963 34143 ft 443 kts 238°
2026-04-21 07:54 24.68212 -133.09423 34143 ft 443 kts 238°
2026-04-21 07:54 24.64552 -133.14890 34143 ft 445 kts 238°
2026-04-21 07:55 24.60884 -133.20365 34145 ft 446 kts 238°
2026-04-21 07:55 24.57226 -133.25817 34148 ft 446 kts 238°
2026-04-21 07:56 24.53538 -133.31307 34144 ft 447 kts 238°
2026-04-21 07:56 24.49845 -133.36800 34144 ft 447 kts 238°
2026-04-21 07:57 24.46150 -133.42289 34141 ft 447 kts 238°
2026-04-21 07:57 24.42481 -133.47733 34141 ft 447 kts 238°
2026-04-21 07:58 24.38781 -133.53218 34140 ft 447 kts 238°
2026-04-21 07:58 24.35086 -133.58687 34143 ft 446 kts 238°
2026-04-21 07:59 24.31415 -133.64116 34145 ft 446 kts 238°
2026-04-21 07:59 24.27725 -133.69567 34142 ft 445 kts 238°
2026-04-21 08:00 24.24033 -133.75017 34142 ft 445 kts 238°
2026-04-21 08:00 24.20343 -133.80456 34144 ft 445 kts 238°
2026-04-21 08:01 24.16653 -133.85890 34145 ft 445 kts 238°
2026-04-21 08:02 24.11137 -133.94001 34142 ft 444 kts 238°
2026-04-21 08:02 24.07442 -133.99428 34140 ft 445 kts 238°
2026-04-21 08:03 24.03746 -134.04850 34145 ft 445 kts 238°
2026-04-21 08:03 24.00043 -134.10276 34140 ft 445 kts 238°
2026-04-21 08:04 23.96368 -134.15656 34142 ft 445 kts 237°
2026-04-21 08:04 23.92664 -134.21072 34145 ft 445 kts 237°
2026-04-21 08:05 23.88961 -134.26479 34144 ft 445 kts 237°
2026-04-21 08:05 23.85252 -134.31891 34139 ft 445 kts 237°
2026-04-21 08:06 23.81562 -134.37269 34142 ft 445 kts 237°
2026-04-21 08:06 23.77849 -134.42674 34142 ft 445 kts 237°
2026-04-21 08:07 23.74128 -134.48085 34143 ft 446 kts 237°
2026-04-21 08:07 23.70401 -134.53498 34143 ft 446 kts 237°
2026-04-21 08:08 23.66700 -134.58868 34138 ft 446 kts 237°
2026-04-21 08:08 23.62966 -134.64282 34142 ft 446 kts 237°
2026-04-21 08:09 23.59233 -134.69686 34140 ft 446 kts 237°
2026-04-21 08:09 23.55492 -134.75098 34144 ft 447 kts 237°
2026-04-21 08:10 23.51781 -134.80459 34141 ft 446 kts 237°
2026-04-21 08:10 23.48039 -134.85860 34138 ft 447 kts 237°
2026-04-21 08:11 23.44293 -134.91261 34138 ft 447 kts 237°
2026-04-21 08:11 23.40545 -134.96658 34139 ft 447 kts 237°
2026-04-21 08:12 23.36820 -135.02018 34140 ft 447 kts 237°
2026-04-21 08:12 23.33069 -135.07410 34139 ft 447 kts 237°
2026-04-21 08:13 23.29313 -135.12801 34136 ft 447 kts 237°
2026-04-21 08:13 23.25580 -135.18155 34138 ft 447 kts 237°
2026-04-21 08:14 23.21822 -135.23540 34140 ft 447 kts 237°
2026-04-21 08:14 23.18057 -135.28928 34139 ft 448 kts 237°
2026-04-21 08:15 23.14289 -135.34315 34139 ft 448 kts 236°
2026-04-21 08:15 23.10546 -135.39661 34140 ft 448 kts 236°
2026-04-21 08:16 23.06773 -135.45044 34138 ft 448 kts 236°
2026-04-21 08:16 23.02998 -135.50424 34135 ft 448 kts 236°
2026-04-21 08:17 22.99221 -135.55802 34134 ft 448 kts 236°
2026-04-21 08:17 22.95465 -135.61144 34136 ft 448 kts 236°
2026-04-21 08:18 22.91681 -135.66520 34133 ft 448 kts 236°
2026-04-21 08:18 22.87897 -135.71891 34136 ft 448 kts 236°
2026-04-21 08:19 22.84108 -135.77262 34135 ft 448 kts 236°
2026-04-21 08:19 22.80347 -135.82589 34136 ft 448 kts 236°
2026-04-21 08:20 22.76558 -135.87951 34135 ft 448 kts 236°
2026-04-21 08:20 22.72769 -135.93306 34133 ft 448 kts 236°
2026-04-21 08:21 22.68973 -135.98667 34132 ft 448 kts 236°
2026-04-21 08:21 22.65202 -136.03987 34128 ft 448 kts 236°
2026-04-21 08:22 22.61400 -136.09345 34133 ft 448 kts 236°
2026-04-21 08:22 22.57599 -136.14696 34132 ft 448 kts 236°
2026-04-21 08:23 22.53823 -136.20006 34128 ft 449 kts 236°
2026-04-21 08:23 22.50014 -136.25358 34127 ft 449 kts 236°
2026-04-21 08:24 22.46204 -136.30704 34129 ft 449 kts 236°
2026-04-21 08:24 22.42387 -136.36055 34130 ft 449 kts 236°
2026-04-21 08:25 22.38595 -136.41367 34131 ft 449 kts 236°
2026-04-21 08:25 22.34775 -136.46711 34128 ft 450 kts 236°
2026-04-21 08:26 22.30950 -136.52059 34127 ft 450 kts 236°
2026-04-21 08:26 22.27124 -136.57400 34128 ft 450 kts 236°
2026-04-21 08:27 22.23322 -136.62705 34127 ft 450 kts 236°
2026-04-21 08:27 22.19485 -136.68052 34124 ft 451 kts 235°
2026-04-21 08:28 22.15644 -136.73400 34126 ft 451 kts 235°
2026-04-21 08:28 22.11796 -136.78751 34127 ft 452 kts 235°
2026-04-21 08:29 22.07970 -136.84067 34127 ft 452 kts 235°
2026-04-21 08:29 22.04119 -136.89413 34128 ft 452 kts 235°
2026-04-21 08:30 22.00260 -136.94763 34127 ft 452 kts 235°
2026-04-21 08:30 21.96400 -137.00112 34124 ft 452 kts 235°
2026-04-21 08:31 21.92533 -137.05462 34123 ft 453 kts 235°
2026-04-21 08:31 21.88689 -137.10778 34136 ft 453 kts 235°
2026-04-21 08:32 21.84813 -137.16131 34119 ft 453 kts 235°
2026-04-21 08:32 21.80938 -137.21477 34131 ft 453 kts 235°
2026-04-21 08:33 21.77079 -137.26798 34115 ft 454 kts 235°
2026-04-21 08:33 21.73193 -137.32149 34124 ft 454 kts 235°
2026-04-21 08:34 21.69300 -137.37505 34130 ft 455 kts 235°
2026-04-21 08:34 21.65404 -137.42859 34112 ft 455 kts 235°
2026-04-21 08:35 21.61528 -137.48182 34125 ft 455 kts 235°
2026-04-21 08:35 21.57627 -137.53533 34122 ft 455 kts 235°
2026-04-21 08:36 21.53719 -137.58888 34124 ft 455 kts 235°
2026-04-21 08:36 21.49811 -137.64239 34120 ft 455 kts 235°
2026-04-21 08:37 21.45926 -137.69553 34114 ft 455 kts 235°
2026-04-21 08:37 21.42016 -137.74895 34120 ft 455 kts 235°
2026-04-21 08:38 21.38101 -137.80240 34121 ft 455 kts 235°
2026-04-21 08:38 21.34181 -137.85585 34122 ft 456 kts 235°
2026-04-21 08:39 21.30289 -137.90888 34119 ft 456 kts 235°
2026-04-21 08:39 21.26366 -137.96228 34115 ft 456 kts 235°
2026-04-21 08:40 21.22444 -138.01560 34118 ft 456 kts 235°
2026-04-21 08:40 21.18518 -138.06894 34111 ft 456 kts 235°
2026-04-21 08:41 21.14617 -138.12188 34120 ft 456 kts 235°
2026-04-21 08:41 21.10691 -138.17512 34117 ft 455 kts 235°
2026-04-21 08:42 21.06759 -138.22838 34117 ft 455 kts 235°
2026-04-21 08:42 21.02830 -138.28155 34118 ft 455 kts 235°
2026-04-21 08:43 20.98926 -138.33434 34114 ft 455 kts 235°
2026-04-21 08:43 20.94995 -138.38744 34115 ft 455 kts 235°
2026-04-21 08:44 20.91066 -138.44047 34120 ft 455 kts 235°
2026-04-21 08:44 20.87134 -138.49348 34113 ft 455 kts 235°
2026-04-21 08:45 20.83203 -138.54643 34117 ft 455 kts 235°
2026-04-21 08:45 20.79299 -138.59897 34115 ft 454 kts 235°
2026-04-21 08:46 20.75368 -138.65182 34118 ft 454 kts 235°
2026-04-21 08:46 20.71435 -138.70465 34116 ft 454 kts 235°
2026-04-21 08:47 20.67533 -138.75702 34114 ft 454 kts 235°
2026-04-21 08:47 20.63602 -138.80973 34116 ft 453 kts 235°
2026-04-21 08:48 20.59673 -138.86237 34119 ft 453 kts 235°
2026-04-21 08:48 20.55746 -138.91493 34116 ft 453 kts 234°
2026-04-21 08:49 20.51841 -138.96714 34114 ft 453 kts 234°
2026-04-21 08:49 20.47913 -139.01960 34115 ft 453 kts 234°
2026-04-21 08:50 20.43984 -139.07205 34115 ft 452 kts 234°
2026-04-21 08:50 20.40059 -139.12438 34112 ft 452 kts 234°
2026-04-21 08:51 20.36128 -139.17676 34112 ft 452 kts 234°
2026-04-21 08:51 20.32226 -139.22869 34117 ft 452 kts 234°
2026-04-21 08:52 20.28299 -139.28092 34116 ft 452 kts 234°
2026-04-21 08:52 20.24368 -139.33315 34115 ft 452 kts 234°
2026-04-21 08:53 20.20465 -139.38499 34118 ft 452 kts 234°
2026-04-21 08:53 20.16535 -139.43709 34116 ft 452 kts 234°
2026-04-21 08:54 20.12600 -139.48919 34111 ft 451 kts 234°
2026-04-21 08:54 20.08665 -139.54127 34113 ft 451 kts 234°
2026-04-21 08:55 20.04756 -139.59296 34112 ft 451 kts 234°
2026-04-21 08:55 20.00818 -139.64500 34109 ft 452 kts 234°
2026-04-21 08:56 19.96874 -139.69706 34110 ft 452 kts 234°
2026-04-21 08:56 19.92926 -139.74912 34113 ft 452 kts 234°
2026-04-21 08:57 19.89005 -139.80080 34114 ft 452 kts 234°
2026-04-21 08:57 19.85056 -139.85279 34115 ft 452 kts 234°
2026-04-21 08:58 19.81104 -139.90478 34111 ft 452 kts 234°
2026-04-21 08:58 19.77174 -139.95644 34109 ft 452 kts 234°
2026-04-21 08:59 19.73222 -140.00833 34109 ft 452 kts 234°
2026-04-21 08:59 19.69261 -140.06031 34110 ft 453 kts 234°
2026-04-21 09:00 19.65299 -140.11223 34110 ft 453 kts 234°
2026-04-21 09:00 19.61335 -140.16415 34108 ft 453 kts 234°
2026-04-21 09:01 19.57395 -140.21572 34108 ft 453 kts 234°
2026-04-21 09:01 19.53422 -140.26766 34107 ft 453 kts 234°
2026-04-21 09:02 19.49452 -140.31953 34107 ft 453 kts 234°
2026-04-21 09:02 19.45476 -140.37142 34106 ft 453 kts 234°
2026-04-21 09:03 19.39534 -140.44889 34103 ft 454 kts 234°
2026-04-21 09:03 19.35552 -140.50075 34100 ft 454 kts 234°
2026-04-21 09:04 19.31573 -140.55254 34101 ft 454 kts 233°
2026-04-21 09:04 19.27585 -140.60438 34104 ft 454 kts 233°
2026-04-21 09:05 19.23621 -140.65588 34101 ft 454 kts 233°
2026-04-21 09:05 19.19631 -140.70766 34100 ft 454 kts 233°
2026-04-21 09:06 19.15635 -140.75949 34100 ft 454 kts 233°
2026-04-21 09:06 19.11637 -140.81130 34098 ft 455 kts 233°
2026-04-21 09:07 19.07664 -140.86273 34099 ft 454 kts 233°
2026-04-21 09:07 19.03664 -140.91448 34098 ft 455 kts 233°
2026-04-21 09:08 18.99663 -140.96619 34095 ft 455 kts 233°
2026-04-21 09:08 18.95656 -141.01795 34101 ft 455 kts 233°
2026-04-21 09:09 18.91677 -141.06928 34092 ft 455 kts 233°
2026-04-21 09:09 18.87665 -141.12101 34091 ft 455 kts 233°
2026-04-21 09:10 18.83652 -141.17270 34092 ft 455 kts 233°
2026-04-21 09:10 18.79666 -141.22401 34095 ft 455 kts 233°
2026-04-21 09:11 18.75653 -141.27563 34093 ft 455 kts 233°
2026-04-21 09:11 18.71635 -141.32726 34092 ft 455 kts 233°
2026-04-21 09:12 18.68297 -141.37011 34092 ft 455 kts 233°
2026-04-21 09:12 18.64274 -141.42174 34088 ft 455 kts 233°
2026-04-21 09:13 18.59600 -141.48165 34092 ft 456 kts 233°
2026-04-21 09:13 18.55569 -141.53328 34089 ft 456 kts 233°
2026-04-21 09:14 18.52225 -141.57608 34081 ft 456 kts 233°
2026-04-21 09:14 18.47539 -141.63600 34086 ft 456 kts 233°
2026-04-21 09:15 18.44163 -141.67914 34085 ft 456 kts 233°
2026-04-21 09:15 18.39476 -141.73898 34082 ft 456 kts 233°
2026-04-21 09:16 18.36124 -141.78173 34082 ft 455 kts 233°
2026-04-21 09:16 18.32092 -141.83314 34082 ft 455 kts 232°
2026-04-21 09:17 18.27403 -141.89286 34085 ft 455 kts 232°
2026-04-21 09:17 18.24046 -141.93558 34081 ft 456 kts 232°
2026-04-21 09:18 18.20005 -141.98697 34086 ft 456 kts 232°
2026-04-21 09:18 18.15965 -142.03830 34080 ft 456 kts 232°
2026-04-21 09:19 18.11261 -142.09802 34081 ft 456 kts 232°
2026-04-21 09:19 18.07900 -142.14065 34087 ft 456 kts 232°
2026-04-21 09:20 18.03854 -142.19195 34074 ft 456 kts 232°
2026-04-21 09:20 17.99810 -142.24317 34087 ft 456 kts 232°
2026-04-21 09:21 17.95762 -142.29440 34069 ft 455 kts 232°
2026-04-21 09:21 17.91742 -142.34523 34078 ft 455 kts 232°
2026-04-21 09:22 17.87691 -142.39643 34076 ft 455 kts 232°
2026-04-21 09:22 17.83645 -142.44751 34072 ft 455 kts 232°
2026-04-21 09:23 17.79593 -142.49862 34068 ft 455 kts 232°
2026-04-21 09:23 17.75570 -142.54935 34067 ft 455 kts 232°
2026-04-21 09:24 17.71518 -142.60038 34065 ft 455 kts 232°
2026-04-21 09:24 17.67468 -142.65137 34068 ft 455 kts 232°
2026-04-21 09:25 17.63421 -142.70226 34065 ft 454 kts 232°
2026-04-21 09:25 17.59399 -142.75281 34065 ft 455 kts 232°
2026-04-21 09:26 17.55346 -142.80370 34065 ft 455 kts 232°
2026-04-21 09:26 17.51290 -142.85460 34063 ft 455 kts 231°
2026-04-21 09:27 17.47261 -142.90511 34060 ft 455 kts 231°
2026-04-21 09:27 17.43201 -142.95599 34061 ft 455 kts 231°
2026-04-21 09:28 17.39139 -143.00684 34060 ft 455 kts 231°
2026-04-21 09:28 17.35074 -143.05770 34061 ft 455 kts 231°
2026-04-21 09:29 17.31035 -143.10818 34057 ft 455 kts 231°
2026-04-21 09:29 17.26971 -143.15895 34060 ft 455 kts 231°
2026-04-21 09:30 17.22904 -143.20971 34057 ft 455 kts 231°
2026-04-21 09:30 17.18839 -143.26041 34058 ft 455 kts 231°
2026-04-21 09:31 17.14796 -143.31080 34057 ft 455 kts 231°
2026-04-21 09:31 17.10729 -143.36145 34055 ft 455 kts 231°
2026-04-21 09:32 17.06655 -143.41215 34051 ft 455 kts 231°
2026-04-21 09:32 17.02584 -143.46277 34054 ft 455 kts 231°
2026-04-21 09:33 16.98535 -143.51308 34055 ft 455 kts 231°
2026-04-21 09:33 16.94459 -143.56370 34054 ft 456 kts 231°
2026-04-21 09:34 16.90372 -143.61441 34047 ft 456 kts 231°
2026-04-21 09:34 16.86287 -143.66505 34052 ft 456 kts 231°
2026-04-21 09:35 16.82222 -143.71541 34050 ft 456 kts 231°
2026-04-21 09:35 16.78130 -143.76608 34049 ft 457 kts 231°
2026-04-21 09:36 16.74032 -143.81678 34049 ft 457 kts 231°
2026-04-21 09:36 16.69936 -143.86740 34043 ft 457 kts 231°
2026-04-21 09:37 16.65860 -143.91776 34047 ft 457 kts 231°
2026-04-21 09:37 16.61753 -143.96846 34045 ft 458 kts 231°
2026-04-21 09:38 16.57641 -144.01918 34045 ft 458 kts 231°
2026-04-21 09:38 16.53527 -144.06989 34047 ft 458 kts 231°
2026-04-21 09:39 16.49437 -144.12027 34042 ft 459 kts 231°
2026-04-21 09:39 16.45315 -144.17100 34042 ft 459 kts 231°
2026-04-21 09:40 16.41187 -144.22177 34041 ft 459 kts 231°
2026-04-21 09:40 16.37064 -144.27244 34041 ft 459 kts 231°
2026-04-21 09:41 16.32961 -144.32284 34036 ft 459 kts 231°
2026-04-21 09:41 16.28833 -144.37350 34038 ft 459 kts 231°
2026-04-21 09:42 16.24707 -144.42411 34037 ft 458 kts 231°
2026-04-21 09:42 16.20610 -144.47431 34035 ft 458 kts 231°
2026-04-21 09:43 16.16487 -144.52481 34033 ft 458 kts 231°
2026-04-21 09:43 16.12363 -144.57528 34031 ft 457 kts 231°
2026-04-21 09:44 16.08240 -144.62571 34032 ft 457 kts 231°
2026-04-21 09:44 16.04148 -144.67572 34035 ft 457 kts 231°
2026-04-21 09:45 16.00027 -144.72605 34032 ft 457 kts 231°
2026-04-21 09:45 15.95901 -144.77641 34028 ft 457 kts 231°
2026-04-21 09:46 15.91777 -144.82670 34029 ft 457 kts 231°
2026-04-21 09:46 15.87682 -144.87660 34026 ft 457 kts 231°
2026-04-21 09:47 15.83554 -144.92688 34027 ft 457 kts 231°
2026-04-21 09:47 15.79431 -144.97706 34024 ft 457 kts 231°
2026-04-21 09:48 15.75304 -145.02726 34024 ft 457 kts 231°
2026-04-21 09:48 15.71204 -145.07709 34031 ft 457 kts 231°
2026-04-21 09:49 15.67075 -145.12724 34026 ft 457 kts 231°
2026-04-21 09:49 15.62948 -145.17734 34023 ft 456 kts 231°
2026-04-21 09:50 15.59520 -145.21892 34022 ft 456 kts 231°
2026-04-21 09:50 15.54724 -145.27705 34021 ft 457 kts 231°
2026-04-21 09:51 15.50593 -145.32709 34020 ft 457 kts 231°
2026-04-21 09:51 15.46461 -145.37711 34023 ft 457 kts 231°
2026-04-21 09:52 15.42322 -145.42718 34018 ft 457 kts 231°
2026-04-21 09:52 15.38208 -145.47691 34020 ft 458 kts 230°
2026-04-21 09:53 15.34067 -145.52693 34020 ft 458 kts 230°
2026-04-21 09:53 15.29915 -145.57707 34019 ft 458 kts 230°
2026-04-21 09:54 15.25768 -145.62710 34016 ft 458 kts 230°
2026-04-21 09:54 15.21639 -145.67687 34013 ft 459 kts 230°
2026-04-21 09:55 15.17479 -145.72699 34009 ft 459 kts 230°
2026-04-21 09:55 15.13318 -145.77710 34010 ft 459 kts 230°
2026-04-21 09:56 15.09152 -145.82723 34011 ft 459 kts 230°
2026-04-21 09:56 15.05011 -145.87702 34009 ft 460 kts 230°
2026-04-21 09:57 15.00843 -145.92711 34009 ft 460 kts 230°
2026-04-21 09:57 14.96665 -145.97728 34010 ft 460 kts 230°
2026-04-21 09:58 14.92487 -146.02743 34011 ft 460 kts 230°
2026-04-21 09:58 14.88166 -146.07565 34009 ft 462 kts 223°
2026-04-21 09:59 14.83216 -146.11821 34005 ft 463 kts 221°
2026-04-21 09:59 14.78168 -146.15971 34006 ft 464 kts 220°
2026-04-21 10:00 14.73145 -146.20079 34005 ft 464 kts 220°
2026-04-21 10:00 14.68094 -146.24226 34007 ft 464 kts 220°
2026-04-21 10:01 14.63040 -146.28383 34006 ft 464 kts 220°
2026-04-21 10:01 14.57990 -146.32537 34005 ft 464 kts 220°
2026-04-21 10:02 14.50446 -146.38735 34007 ft 464 kts 220°
2026-04-21 10:03 14.45389 -146.42887 33999 ft 464 kts 220°
2026-04-21 10:03 14.40331 -146.47037 34004 ft 464 kts 220°
2026-04-21 10:04 14.35275 -146.51183 33999 ft 465 kts 220°
2026-04-21 10:04 14.30248 -146.55303 34000 ft 464 kts 220°
2026-04-21 10:05 14.25190 -146.59446 34001 ft 464 kts 220°
2026-04-21 10:05 14.20132 -146.63587 33999 ft 465 kts 220°
2026-04-21 10:06 14.15064 -146.67733 33992 ft 465 kts 220°
2026-04-21 10:06 14.10033 -146.71846 33994 ft 465 kts 220°
2026-04-21 10:07 14.04962 -146.75990 33996 ft 465 kts 220°
2026-04-21 10:07 13.99886 -146.80135 33993 ft 465 kts 220°
2026-04-21 10:08 13.94816 -146.84273 33988 ft 465 kts 220°
2026-04-21 10:08 13.89775 -146.88385 33992 ft 465 kts 220°
2026-04-21 10:09 13.84697 -146.92525 33988 ft 466 kts 220°
2026-04-21 10:09 13.79613 -146.96667 33991 ft 466 kts 220°
2026-04-21 10:10 13.74559 -147.00784 33990 ft 467 kts 220°
2026-04-21 10:10 13.69459 -147.04934 33989 ft 468 kts 220°
2026-04-21 10:11 13.64356 -147.09085 33991 ft 468 kts 220°
2026-04-21 10:11 13.59249 -147.13236 33987 ft 468 kts 220°
2026-04-21 10:12 13.54175 -147.17359 33987 ft 468 kts 220°
2026-04-21 10:12 13.49059 -147.21513 33986 ft 469 kts 220°
2026-04-21 10:13 13.43937 -147.25669 33988 ft 469 kts 220°
2026-04-21 10:13 13.38807 -147.29830 33985 ft 470 kts 220°
2026-04-21 10:14 13.33706 -147.33965 33985 ft 470 kts 220°
2026-04-21 10:14 13.28570 -147.38126 33984 ft 471 kts 220°
2026-04-21 10:15 13.23433 -147.42285 33980 ft 471 kts 220°
2026-04-21 10:15 13.18283 -147.46453 33982 ft 471 kts 220°
2026-04-21 10:16 13.13170 -147.50589 33979 ft 471 kts 220°
2026-04-21 10:16 13.08016 -147.54755 33976 ft 472 kts 220°
2026-04-21 10:17 13.02863 -147.58918 33977 ft 472 kts 220°
2026-04-21 10:17 12.97693 -147.63093 33979 ft 473 kts 220°
2026-04-21 10:18 12.92563 -147.67234 33971 ft 473 kts 220°
2026-04-21 10:18 12.87393 -147.71403 33975 ft 473 kts 220°
2026-04-21 10:19 12.82218 -147.75576 33972 ft 473 kts 220°
2026-04-21 10:19 12.77045 -147.79745 33969 ft 473 kts 220°
2026-04-21 10:20 12.71903 -147.83886 33968 ft 473 kts 220°
2026-04-21 10:20 12.66717 -147.88060 33969 ft 474 kts 220°
2026-04-21 10:21 12.61536 -147.92228 33968 ft 474 kts 220°
2026-04-21 10:21 12.56347 -147.96400 33970 ft 475 kts 220°
2026-04-21 10:22 12.51188 -148.00546 33964 ft 475 kts 220°
2026-04-21 10:22 12.45983 -148.04727 33966 ft 475 kts 220°
2026-04-21 10:23 12.40781 -148.08903 33965 ft 476 kts 220°
2026-04-21 10:23 12.35602 -148.13059 33967 ft 476 kts 220°
2026-04-21 10:24 12.30385 -148.17243 33964 ft 477 kts 220°
2026-04-21 10:24 12.25164 -148.21428 33965 ft 477 kts 220°
2026-04-21 10:25 12.19939 -148.25614 33962 ft 477 kts 220°
2026-04-21 10:25 12.14741 -148.29776 33961 ft 478 kts 220°
2026-04-21 10:26 12.09506 -148.33965 33963 ft 478 kts 220°
2026-04-21 10:26 12.04266 -148.38157 33959 ft 479 kts 220°
2026-04-21 10:27 11.99020 -148.42351 33960 ft 479 kts 220°
2026-04-21 10:27 11.93806 -148.46517 33960 ft 479 kts 220°
2026-04-21 10:28 11.88558 -148.50709 33958 ft 479 kts 220°
2026-04-21 10:28 11.83309 -148.54899 33956 ft 479 kts 220°
2026-04-21 10:29 11.78088 -148.59065 33958 ft 479 kts 220°
2026-04-21 10:29 11.72829 -148.63259 33958 ft 480 kts 220°
2026-04-21 10:30 11.67572 -148.67450 33955 ft 480 kts 220°
2026-04-21 10:30 11.62312 -148.71640 33959 ft 480 kts 220°
2026-04-21 10:31 11.57079 -148.75807 33957 ft 480 kts 220°
2026-04-21 10:31 11.51808 -148.80002 33955 ft 481 kts 220°
2026-04-21 10:32 11.46529 -148.84201 33956 ft 481 kts 220°
2026-04-21 10:32 11.41249 -148.88400 33953 ft 481 kts 220°
2026-04-21 10:33 11.36003 -148.92570 33952 ft 482 kts 220°
2026-04-21 10:33 11.30709 -148.96775 33952 ft 482 kts 220°
2026-04-21 10:34 11.25418 -149.00975 33950 ft 482 kts 220°
2026-04-21 10:34 11.20159 -149.05147 33947 ft 482 kts 220°
2026-04-21 10:35 11.14896 -149.09320 33951 ft 478 kts 220°
2026-04-21 10:35 11.09649 -149.13483 33950 ft 478 kts 220°
2026-04-21 10:36 11.04400 -149.17645 33950 ft 479 kts 220°
2026-04-21 10:36 10.99175 -149.21784 33945 ft 479 kts 220°
2026-04-21 10:37 10.93909 -149.25953 33950 ft 480 kts 220°
2026-04-21 10:37 10.88642 -149.30122 33947 ft 480 kts 220°
2026-04-21 10:38 10.83364 -149.34297 33948 ft 481 kts 220°
2026-04-21 10:38 10.78118 -149.38445 33945 ft 481 kts 220°
2026-04-21 10:39 10.72834 -149.42621 33945 ft 481 kts 220°
2026-04-21 10:39 10.67546 -149.46798 33943 ft 481 kts 220°
2026-04-21 10:40 10.62291 -149.50947 33942 ft 482 kts 220°
2026-04-21 10:40 10.56994 -149.55128 33942 ft 482 kts 220°
2026-04-21 10:41 10.51697 -149.59307 33938 ft 483 kts 220°
2026-04-21 10:41 10.46395 -149.63488 33940 ft 483 kts 220°
2026-04-21 10:42 10.41119 -149.67646 33941 ft 483 kts 220°
2026-04-21 10:42 10.35813 -149.71826 33940 ft 483 kts 220°
2026-04-21 10:43 10.30501 -149.76010 33937 ft 483 kts 220°
2026-04-21 10:43 10.25216 -149.80170 33939 ft 484 kts 220°
2026-04-21 10:44 10.19900 -149.84352 33938 ft 484 kts 220°
2026-04-21 10:44 10.14580 -149.88536 33940 ft 484 kts 220°
2026-04-21 10:45 10.09258 -149.92720 33938 ft 484 kts 220°
2026-04-21 10:45 10.03928 -149.96909 33935 ft 484 kts 220°
2026-04-21 10:46 9.98642 -150.01068 34264 ft 481 kts 221°
2026-04-21 10:46 9.96066 -150.03190 34639 ft 475 kts 223°
2026-04-21 10:46 9.93547 -150.05342 34947 ft 472 kts 223°
2026-04-21 10:46 9.91055 -150.07499 35196 ft 470 kts 224°
2026-04-21 10:47 9.88565 -150.09654 35426 ft 469 kts 223°
2026-04-21 10:47 9.86083 -150.11791 35655 ft 468 kts 223°
2026-04-21 10:47 9.83600 -150.13917 35858 ft 467 kts 223°
2026-04-21 10:48 9.78625 -150.18151 35931 ft 473 kts 223°
2026-04-21 10:48 9.73570 -150.22438 35936 ft 473 kts 223°
2026-04-21 10:49 9.68522 -150.26714 35927 ft 473 kts 223°
2026-04-21 10:49 9.63475 -150.30991 35924 ft 473 kts 223°
2026-04-21 10:50 9.58423 -150.35271 35931 ft 473 kts 223°
2026-04-21 10:50 9.53410 -150.39517 35931 ft 473 kts 223°
2026-04-21 10:51 9.48364 -150.43789 35928 ft 473 kts 223°
2026-04-21 10:51 9.43311 -150.48065 35935 ft 473 kts 223°
2026-04-21 10:52 9.38295 -150.52308 35925 ft 473 kts 223°
2026-04-21 10:52 9.33246 -150.56577 35930 ft 473 kts 223°
2026-04-21 10:53 9.28194 -150.60847 35928 ft 473 kts 223°
2026-04-21 10:53 9.23141 -150.65117 35929 ft 473 kts 223°
2026-04-21 10:54 9.18119 -150.69359 35930 ft 473 kts 223°
2026-04-21 10:54 9.13061 -150.73629 35921 ft 474 kts 223°
2026-04-21 10:55 9.08000 -150.77900 35926 ft 474 kts 223°
2026-04-21 10:55 9.02941 -150.82168 35926 ft 474 kts 223°
2026-04-21 10:56 8.97907 -150.86414 35922 ft 474 kts 223°
2026-04-21 10:56 8.92845 -150.90681 35925 ft 474 kts 223°
2026-04-21 10:57 8.87773 -150.94954 35926 ft 475 kts 223°
2026-04-21 10:57 8.82698 -150.99230 35925 ft 475 kts 223°
2026-04-21 10:58 8.77660 -151.03472 35923 ft 475 kts 223°
2026-04-21 10:58 8.72577 -151.07751 35929 ft 475 kts 223°
2026-04-21 10:59 8.67497 -151.12025 35921 ft 475 kts 223°
2026-04-21 10:59 8.62415 -151.16300 35914 ft 475 kts 223°
2026-04-21 11:00 8.57364 -151.20547 35927 ft 476 kts 223°
2026-04-21 11:00 8.52278 -151.24822 35915 ft 476 kts 223°
2026-04-21 11:01 8.47191 -151.29096 35912 ft 476 kts 223°
2026-04-21 11:01 8.42130 -151.33347 35918 ft 476 kts 223°
2026-04-21 11:02 8.34483 -151.39768 35924 ft 477 kts 223°
2026-04-21 11:02 8.29374 -151.44055 35925 ft 478 kts 223°
2026-04-21 11:03 8.24291 -151.48320 35922 ft 478 kts 223°
2026-04-21 11:03 8.19166 -151.52617 35911 ft 479 kts 223°
2026-04-21 11:04 8.14040 -151.56914 35915 ft 479 kts 223°
2026-04-21 11:04 8.08905 -151.61217 35918 ft 480 kts 223°
2026-04-21 11:05 8.03803 -151.65491 35919 ft 480 kts 223°
2026-04-21 11:05 7.98666 -151.69793 35924 ft 481 kts 223°
2026-04-21 11:06 7.93518 -151.74103 35909 ft 481 kts 222°
2026-04-21 11:06 7.88361 -151.78418 35914 ft 482 kts 222°
2026-04-21 11:07 7.83243 -151.82700 35918 ft 482 kts 222°
2026-04-21 11:07 7.78078 -151.87019 35918 ft 482 kts 222°
2026-04-21 11:08 7.72910 -151.91340 35908 ft 483 kts 222°
2026-04-21 11:08 7.67741 -151.95660 35912 ft 483 kts 222°
2026-04-21 11:09 7.62604 -151.99952 35907 ft 483 kts 222°
2026-04-21 11:09 7.57432 -152.04272 35915 ft 483 kts 222°
2026-04-21 11:10 7.52258 -152.08592 35911 ft 483 kts 222°
2026-04-21 11:10 7.47090 -152.12905 35898 ft 483 kts 222°
2026-04-21 11:11 7.41956 -152.17189 35910 ft 483 kts 222°
2026-04-21 11:11 7.36783 -152.21505 35902 ft 483 kts 222°
2026-04-21 11:12 7.31611 -152.25818 35905 ft 482 kts 222°
2026-04-21 11:12 7.26447 -152.30123 35913 ft 482 kts 222°
2026-04-21 11:13 7.21312 -152.34402 35913 ft 482 kts 222°
2026-04-21 11:13 7.16145 -152.38707 35910 ft 482 kts 222°
2026-04-21 11:14 7.10974 -152.43014 35905 ft 482 kts 222°
2026-04-21 11:14 7.05809 -152.47314 35911 ft 482 kts 222°
2026-04-21 11:15 7.00676 -152.51587 35911 ft 482 kts 222°
2026-04-21 11:15 6.95509 -152.55887 35907 ft 482 kts 222°
2026-04-21 11:16 6.90342 -152.60185 35907 ft 482 kts 222°
2026-04-21 11:16 6.85170 -152.64487 35908 ft 482 kts 222°
2026-04-21 11:17 6.80030 -152.68760 35901 ft 482 kts 222°
2026-04-21 11:17 6.74854 -152.73063 35911 ft 483 kts 222°
2026-04-21 11:18 6.69676 -152.77365 35911 ft 483 kts 222°
2026-04-21 11:18 6.64495 -152.81669 35900 ft 483 kts 221°
2026-04-21 11:19 6.59343 -152.85948 35902 ft 484 kts 221°
2026-04-21 11:19 6.54154 -152.90256 35908 ft 484 kts 221°
2026-04-21 11:20 6.48959 -152.94568 35910 ft 484 kts 221°
2026-04-21 11:20 6.43766 -152.98877 35909 ft 484 kts 221°
2026-04-21 11:21 6.38603 -153.03160 35906 ft 485 kts 221°
2026-04-21 11:21 6.33399 -153.07475 35909 ft 485 kts 221°
2026-04-21 11:22 6.28198 -153.11788 35907 ft 485 kts 221°
2026-04-21 11:22 6.22993 -153.16102 35906 ft 485 kts 221°
2026-04-21 11:23 6.17819 -153.20390 35910 ft 485 kts 221°
2026-04-21 11:23 6.12609 -153.24706 35904 ft 485 kts 221°
2026-04-21 11:24 6.07397 -153.29022 35909 ft 486 kts 221°
2026-04-21 11:24 6.02215 -153.33314 35910 ft 486 kts 221°
2026-04-21 11:25 5.97004 -153.37628 35908 ft 486 kts 221°
2026-04-21 11:25 5.91781 -153.41950 35907 ft 486 kts 221°
2026-04-21 11:26 5.86561 -153.46269 35905 ft 486 kts 221°
2026-04-21 11:26 5.81378 -153.50555 35907 ft 486 kts 221°
2026-04-21 11:27 5.76157 -153.54874 35903 ft 486 kts 221°
2026-04-21 11:27 5.70934 -153.59192 35902 ft 486 kts 221°
2026-04-21 11:28 5.65709 -153.63510 35905 ft 486 kts 221°
2026-04-21 11:28 5.60484 -153.67828 35906 ft 487 kts 221°
2026-04-21 11:29 5.55288 -153.72121 35907 ft 487 kts 221°
2026-04-21 11:29 5.50061 -153.76438 35907 ft 486 kts 221°
2026-04-21 11:30 5.44836 -153.80753 35905 ft 486 kts 221°
2026-04-21 11:30 5.39614 -153.85064 35903 ft 486 kts 221°
2026-04-21 11:31 5.34422 -153.89349 35906 ft 486 kts 221°
2026-04-21 11:31 5.29197 -153.93661 35900 ft 486 kts 221°
2026-04-21 11:32 5.23968 -153.97976 35905 ft 486 kts 221°
2026-04-21 11:32 5.18773 -154.02261 35905 ft 487 kts 221°
2026-04-21 11:33 5.13549 -154.06569 35902 ft 487 kts 221°
2026-04-21 11:33 5.08315 -154.10884 35899 ft 487 kts 221°
2026-04-21 11:34 5.03118 -154.15168 35899 ft 487 kts 221°
2026-04-21 11:34 4.97883 -154.19482 35902 ft 487 kts 221°
2026-04-21 11:35 4.92645 -154.23798 35899 ft 487 kts 221°
2026-04-21 11:35 4.87407 -154.28113 35904 ft 487 kts 221°
2026-04-21 11:36 4.82204 -154.32398 35906 ft 487 kts 221°
2026-04-21 11:36 4.76962 -154.36714 35899 ft 487 kts 221°
2026-04-21 11:37 4.71727 -154.41024 35901 ft 487 kts 221°
2026-04-21 11:37 4.66488 -154.45336 35897 ft 487 kts 221°
2026-04-21 11:38 4.61246 -154.49650 35897 ft 487 kts 221°
2026-04-21 11:38 4.56038 -154.53935 35898 ft 487 kts 221°
2026-04-21 11:39 4.50800 -154.58244 35898 ft 487 kts 221°
2026-04-21 11:39 4.45559 -154.62555 35898 ft 488 kts 221°
2026-04-21 11:40 4.40310 -154.66871 35899 ft 488 kts 221°
2026-04-21 11:40 4.35067 -154.71181 35896 ft 488 kts 221°
2026-04-21 11:41 4.29852 -154.75468 35897 ft 488 kts 221°
2026-04-21 11:41 4.24604 -154.79781 35894 ft 488 kts 221°
2026-04-21 11:42 4.19360 -154.84090 35898 ft 488 kts 221°
2026-04-21 11:42 4.14235 -154.88301 35898 ft 488 kts 221°
2026-04-21 11:43 4.09021 -154.92584 35899 ft 488 kts 221°
2026-04-21 11:43 4.03777 -154.96890 35896 ft 488 kts 221°
2026-04-21 11:44 3.98528 -155.01205 35896 ft 488 kts 221°
2026-04-21 11:44 3.93315 -155.05560 35896 ft 488 kts 221°
2026-04-21 11:45 3.88154 -155.09899 35897 ft 488 kts 221°
2026-04-21 11:45 3.82948 -155.14268 35898 ft 488 kts 221°
2026-04-21 11:46 3.77741 -155.18627 35892 ft 488 kts 221°
2026-04-21 11:46 3.72525 -155.22990 35895 ft 489 kts 221°
2026-04-21 11:47 3.67344 -155.27325 35897 ft 489 kts 221°
2026-04-21 11:47 3.62125 -155.31690 35898 ft 489 kts 221°
2026-04-21 11:48 3.56902 -155.36059 35898 ft 489 kts 221°
2026-04-21 11:48 3.51672 -155.40433 35898 ft 490 kts 221°
2026-04-21 11:49 3.46478 -155.44776 35896 ft 490 kts 221°
2026-04-21 11:49 3.41246 -155.49150 35901 ft 490 kts 221°
2026-04-21 11:50 3.36013 -155.53524 35895 ft 490 kts 221°
2026-04-21 11:50 3.30824 -155.57861 35892 ft 489 kts 221°
2026-04-21 11:51 3.25606 -155.62221 35892 ft 489 kts 221°
2026-04-21 11:51 3.20387 -155.66582 35894 ft 488 kts 221°
2026-04-21 11:52 3.15181 -155.70932 35898 ft 488 kts 221°
2026-04-21 11:52 3.10003 -155.75257 35892 ft 487 kts 221°
2026-04-21 11:53 3.04803 -155.79600 35892 ft 487 kts 221°
2026-04-21 11:53 2.99602 -155.83944 35898 ft 487 kts 221°
2026-04-21 11:54 2.94429 -155.88263 35895 ft 487 kts 221°
2026-04-21 11:54 2.89225 -155.92608 35896 ft 487 kts 221°
2026-04-21 11:55 2.84016 -155.96956 35893 ft 487 kts 221°
2026-04-21 11:55 2.78810 -156.01301 35892 ft 487 kts 221°
2026-04-21 11:56 2.73608 -156.05643 35893 ft 487 kts 221°
2026-04-21 11:56 2.68441 -156.09955 35892 ft 487 kts 221°
2026-04-21 11:57 2.63231 -156.14302 35889 ft 487 kts 221°
2026-04-21 11:57 2.58023 -156.18647 35890 ft 488 kts 221°
2026-04-21 11:58 2.52848 -156.22964 35890 ft 488 kts 221°
2026-04-21 11:58 2.47636 -156.27311 35890 ft 488 kts 221°
2026-04-21 11:59 2.42420 -156.31661 35886 ft 488 kts 221°
2026-04-21 11:59 2.37206 -156.36009 35892 ft 488 kts 221°
2026-04-21 12:00 2.32023 -156.40331 35889 ft 488 kts 221°
2026-04-21 12:00 2.26807 -156.44680 35888 ft 488 kts 221°
2026-04-21 12:01 2.21592 -156.49028 35888 ft 488 kts 221°
2026-04-21 12:01 2.16372 -156.53379 35885 ft 488 kts 221°
2026-04-21 12:02 2.08577 -156.59876 35881 ft 489 kts 221°
2026-04-21 12:03 2.03354 -156.64228 35885 ft 489 kts 221°
2026-04-21 12:03 1.98133 -156.68579 35884 ft 489 kts 221°
2026-04-21 12:04 1.92911 -156.72931 35883 ft 489 kts 221°
2026-04-21 12:04 1.87725 -156.77252 35884 ft 489 kts 221°
2026-04-21 12:05 1.82501 -156.81604 35884 ft 489 kts 221°
2026-04-21 12:05 1.77275 -156.85958 35885 ft 489 kts 221°
2026-04-21 12:06 1.72051 -156.90309 35883 ft 489 kts 221°
2026-04-21 12:06 1.66854 -156.94639 35886 ft 489 kts 221°
2026-04-21 12:07 1.61626 -156.98993 35882 ft 489 kts 221°
2026-04-21 12:07 1.56398 -157.03347 35882 ft 489 kts 221°
2026-04-21 12:08 1.51171 -157.07700 35884 ft 489 kts 221°
2026-04-21 12:08 1.45976 -157.12025 35883 ft 489 kts 221°
2026-04-21 12:09 1.40750 -157.16377 35881 ft 489 kts 221°
2026-04-21 12:09 1.35514 -157.20736 35882 ft 489 kts 221°
2026-04-21 12:10 1.30287 -157.25088 35881 ft 490 kts 221°
2026-04-21 12:10 1.25088 -157.29417 35879 ft 489 kts 221°
2026-04-21 12:11 1.19852 -157.33775 35882 ft 489 kts 221°
2026-04-21 12:11 1.14624 -157.38127 35881 ft 489 kts 221°
2026-04-21 12:12 1.09393 -157.42482 35881 ft 490 kts 221°
2026-04-21 12:12 1.04195 -157.46808 35880 ft 490 kts 221°
2026-04-21 12:13 0.98959 -157.51166 35887 ft 490 kts 221°
2026-04-21 12:13 0.93721 -157.55525 35878 ft 490 kts 221°
2026-04-21 12:14 0.88478 -157.59889 35882 ft 490 kts 221°
2026-04-21 12:14 0.83273 -157.64220 35882 ft 490 kts 221°
2026-04-21 12:15 0.78028 -157.68585 35883 ft 491 kts 221°
2026-04-21 12:15 0.72786 -157.72947 35881 ft 491 kts 221°
2026-04-21 12:16 0.67572 -157.77286 35881 ft 491 kts 221°
2026-04-21 12:16 0.62326 -157.81651 35880 ft 491 kts 221°
2026-04-21 12:17 0.57071 -157.86024 35881 ft 491 kts 221°
2026-04-21 12:17 0.51819 -157.90394 35884 ft 491 kts 221°
2026-04-21 12:18 0.46601 -157.94735 35880 ft 491 kts 220°
2026-04-21 12:18 0.41349 -157.99105 35883 ft 491 kts 220°
2026-04-21 12:19 0.36093 -158.03477 35883 ft 491 kts 220°
2026-04-21 12:19 0.30842 -158.07846 35888 ft 492 kts 220°
2026-04-21 12:20 0.25620 -158.12191 35882 ft 491 kts 220°
2026-04-21 12:20 0.20371 -158.16558 35881 ft 491 kts 220°
2026-04-21 12:21 0.15116 -158.20930 35880 ft 491 kts 220°
2026-04-21 12:21 0.09899 -158.25270 35879 ft 491 kts 220°
2026-04-21 12:22 0.04653 -158.29635 35882 ft 491 kts 220°
2026-04-21 12:22 -0.00601 -158.34006 35880 ft 491 kts 220°
2026-04-21 12:23 -0.05848 -158.38371 35881 ft 491 kts 220°
2026-04-21 12:23 -0.11059 -158.42707 35882 ft 491 kts 220°
2026-04-21 12:24 -0.16310 -158.47075 35883 ft 491 kts 220°
2026-04-21 12:24 -0.21555 -158.51439 35885 ft 491 kts 220°
2026-04-21 12:25 -0.26802 -158.55805 35887 ft 491 kts 220°
2026-04-21 12:25 -0.32015 -158.60142 35885 ft 491 kts 220°
2026-04-21 12:26 -0.37265 -158.64511 35881 ft 491 kts 220°
2026-04-21 12:26 -0.42517 -158.68879 35881 ft 491 kts 220°
2026-04-21 12:27 -0.47770 -158.73249 35881 ft 491 kts 220°
2026-04-21 12:27 -0.52991 -158.77594 35878 ft 492 kts 220°
2026-04-21 12:28 -0.58242 -158.81965 35879 ft 492 kts 220°
2026-04-21 12:28 -0.63499 -158.86338 35880 ft 492 kts 220°
2026-04-21 12:29 -0.68719 -158.90682 35877 ft 492 kts 220°
2026-04-21 12:29 -0.73971 -158.95052 35878 ft 491 kts 220°
2026-04-21 12:30 -0.79225 -158.99424 35879 ft 491 kts 220°
2026-04-21 12:30 -0.84475 -159.03794 35881 ft 491 kts 220°
2026-04-21 12:31 -0.89698 -159.08140 35883 ft 492 kts 220°
2026-04-21 12:31 -0.94953 -159.12514 35883 ft 492 kts 220°
2026-04-21 12:32 -1.00210 -159.16889 35879 ft 492 kts 220°
2026-04-21 12:32 -1.05470 -159.21267 35880 ft 492 kts 220°
2026-04-21 12:33 -1.10680 -159.25604 35884 ft 491 kts 220°
2026-04-21 12:33 -1.15934 -159.29977 35880 ft 491 kts 219°
2026-04-21 12:34 -1.21182 -159.34345 35880 ft 491 kts 219°
2026-04-21 12:34 -1.26428 -159.38713 35881 ft 491 kts 219°
2026-04-21 12:35 -1.31648 -159.43059 35886 ft 491 kts 219°
2026-04-21 12:35 -1.36901 -159.47433 35879 ft 492 kts 219°
2026-04-21 12:36 -1.42160 -159.51811 35882 ft 492 kts 219°
2026-04-21 12:36 -1.47418 -159.56190 35882 ft 492 kts 219°
2026-04-21 12:37 -1.52646 -159.60543 35876 ft 492 kts 219°
2026-04-21 12:37 -1.57911 -159.64928 35877 ft 492 kts 219°
2026-04-21 12:38 -1.63169 -159.69307 35884 ft 492 kts 219°
2026-04-21 12:38 -1.68425 -159.73684 35885 ft 492 kts 219°
2026-04-21 12:39 -1.73655 -159.78040 35881 ft 492 kts 219°
2026-04-21 12:39 -1.78920 -159.82427 35884 ft 493 kts 219°
2026-04-21 12:40 -1.84184 -159.86812 35880 ft 493 kts 219°
2026-04-21 12:40 -1.89419 -159.91175 35886 ft 493 kts 219°
2026-04-21 12:41 -1.94694 -159.95570 35877 ft 493 kts 219°
2026-04-21 12:41 -1.99965 -159.99964 35877 ft 493 kts 219°
2026-04-21 12:42 -2.05013 -160.04608 35876 ft 494 kts 224°
2026-04-21 12:42 -2.09767 -160.09505 35882 ft 494 kts 225°
2026-04-21 12:43 -2.14575 -160.14421 35881 ft 494 kts 224°
2026-04-21 12:43 -2.19433 -160.19279 35881 ft 494 kts 224°
2026-04-21 12:44 -2.24316 -160.24119 35877 ft 494 kts 224°
2026-04-21 12:44 -2.29159 -160.28916 35880 ft 494 kts 224°
2026-04-21 12:45 -2.34038 -160.33753 35875 ft 494 kts 224°
2026-04-21 12:45 -2.38915 -160.38593 35879 ft 494 kts 224°
2026-04-21 12:46 -2.43788 -160.43432 35877 ft 494 kts 224°
2026-04-21 12:46 -2.48630 -160.48238 35877 ft 494 kts 224°
2026-04-21 12:47 -2.53509 -160.53082 35875 ft 494 kts 224°
2026-04-21 12:47 -2.58387 -160.57925 35873 ft 494 kts 223°
2026-04-21 12:48 -2.63264 -160.62767 35873 ft 494 kts 223°
2026-04-21 12:48 -2.68114 -160.67584 35881 ft 495 kts 223°
2026-04-21 12:49 -2.72997 -160.72433 35881 ft 495 kts 223°
2026-04-21 12:49 -2.77889 -160.77291 35880 ft 497 kts 223°
2026-04-21 12:50 -2.82835 -160.82203 35875 ft 504 kts 223°
2026-04-21 12:50 -2.87803 -160.87139 35880 ft 509 kts 223°
2026-04-21 12:51 -2.92845 -160.92148 35878 ft 512 kts 223°
2026-04-21 12:51 -2.97904 -160.97177 35875 ft 513 kts 223°
2026-04-21 12:52 -3.02978 -161.02219 35884 ft 514 kts 223°
2026-04-21 12:52 -3.08018 -161.07231 35880 ft 515 kts 223°
2026-04-21 12:53 -3.13102 -161.12287 35878 ft 515 kts 223°
2026-04-21 12:53 -3.18185 -161.17342 35877 ft 516 kts 223°
2026-04-21 12:54 -3.23283 -161.22412 35880 ft 516 kts 223°
2026-04-21 12:54 -3.28380 -161.27481 35880 ft 517 kts 223°
2026-04-21 12:55 -3.33438 -161.32513 35879 ft 517 kts 223°
2026-04-21 12:55 -3.38541 -161.37591 35878 ft 517 kts 222°
2026-04-21 12:56 -3.43640 -161.42665 35881 ft 517 kts 222°
2026-04-21 12:56 -3.48706 -161.47706 35873 ft 517 kts 222°
2026-04-21 12:57 -3.53806 -161.52783 35878 ft 517 kts 222°
2026-04-21 12:57 -3.58902 -161.57857 35879 ft 517 kts 222°
2026-04-21 12:58 -3.64004 -161.62936 35879 ft 517 kts 222°
2026-04-21 12:58 -3.69008 -161.67923 35883 ft 504 kts 222°
2026-04-21 12:59 -3.73938 -161.72836 35878 ft 498 kts 222°
2026-04-21 12:59 -3.78852 -161.77728 35875 ft 498 kts 222°
2026-04-21 13:00 -3.83769 -161.82625 35878 ft 499 kts 222°
2026-04-21 13:00 -3.88650 -161.87489 35880 ft 498 kts 222°
2026-04-21 13:01 -3.93561 -161.92385 35878 ft 498 kts 222°
2026-04-21 13:01 -3.98471 -161.97280 35883 ft 498 kts 222°
2026-04-21 13:02 -4.03384 -162.02178 35888 ft 498 kts 222°
2026-04-21 13:02 -4.10711 -162.09485 35885 ft 498 kts 222°
2026-04-21 13:03 -4.15620 -162.14382 35885 ft 498 kts 222°
2026-04-21 13:03 -4.20525 -162.19276 35879 ft 498 kts 222°
2026-04-21 13:04 -4.25403 -162.24144 35883 ft 498 kts 221°
2026-04-21 13:04 -4.30309 -162.29041 35882 ft 498 kts 221°
2026-04-21 13:05 -4.35215 -162.33939 35881 ft 498 kts 222°
2026-04-21 13:05 -4.40126 -162.38843 35882 ft 498 kts 222°
2026-04-21 13:06 -4.44998 -162.43708 35889 ft 498 kts 221°
2026-04-21 13:06 -4.49905 -162.48610 35883 ft 498 kts 222°
2026-04-21 13:07 -4.54810 -162.53510 35892 ft 498 kts 222°
2026-04-21 13:07 -4.59682 -162.58379 35885 ft 498 kts 222°
2026-04-21 13:08 -4.64584 -162.63279 35883 ft 497 kts 222°
2026-04-21 13:08 -4.69482 -162.68175 35886 ft 497 kts 222°
2026-04-21 13:09 -4.74380 -162.73073 35884 ft 497 kts 222°
2026-04-21 13:09 -4.79243 -162.77937 35888 ft 497 kts 222°
2026-04-21 13:10 -4.84133 -162.82829 35879 ft 497 kts 222°
2026-04-21 13:10 -4.89022 -162.87721 35887 ft 497 kts 222°
2026-04-21 13:11 -4.93908 -162.92610 35879 ft 496 kts 222°
2026-04-21 13:11 -4.98794 -162.97501 35880 ft 496 kts 222°
2026-04-21 13:12 -5.03640 -163.02353 35881 ft 495 kts 222°
2026-04-21 13:12 -5.08515 -163.07235 35880 ft 495 kts 222°
2026-04-21 13:13 -5.13390 -163.12119 35880 ft 495 kts 222°
2026-04-21 13:13 -5.18258 -163.16996 35882 ft 495 kts 222°
2026-04-21 13:14 -5.23094 -163.21842 35883 ft 494 kts 222°
2026-04-21 13:14 -5.27955 -163.26715 35884 ft 494 kts 222°
2026-04-21 13:15 -5.32814 -163.31586 35881 ft 494 kts 222°
2026-04-21 13:15 -5.37675 -163.36462 35881 ft 494 kts 222°
2026-04-21 13:16 -5.41716 -163.40515 35885 ft 494 kts 222°
2026-04-21 13:16 -5.47356 -163.46174 35879 ft 493 kts 222°
2026-04-21 13:17 -5.52212 -163.51047 35880 ft 493 kts 222°
2026-04-21 13:17 -5.56245 -163.55095 35882 ft 493 kts 222°
2026-04-21 13:18 -5.61096 -163.59965 35881 ft 493 kts 222°
2026-04-21 13:18 -5.66728 -163.65622 35883 ft 493 kts 222°
2026-04-21 13:19 -5.70757 -163.69670 35883 ft 493 kts 222°
2026-04-21 13:19 -5.75601 -163.74536 35881 ft 493 kts 222°
2026-04-21 13:20 -5.80448 -163.79408 35881 ft 493 kts 222°
2026-04-21 13:20 -5.85293 -163.84278 35879 ft 493 kts 222°
2026-04-21 13:21 -5.90135 -163.89147 35881 ft 493 kts 222°
2026-04-21 13:21 -5.94947 -163.93987 35884 ft 493 kts 222°
2026-04-21 13:22 -5.99784 -163.98854 35884 ft 493 kts 223°
2026-04-21 13:22 -6.04624 -164.03724 35884 ft 492 kts 223°
2026-04-21 13:23 -6.09465 -164.08597 35884 ft 492 kts 223°
2026-04-21 13:23 -6.14273 -164.13438 35886 ft 492 kts 223°
2026-04-21 13:24 -6.19110 -164.18310 35887 ft 492 kts 223°
2026-04-21 13:24 -6.23950 -164.23187 35888 ft 492 kts 223°
2026-04-21 13:25 -6.28752 -164.28026 35883 ft 492 kts 223°
2026-04-21 13:25 -6.33591 -164.32903 35884 ft 492 kts 223°
2026-04-21 13:26 -6.38420 -164.37772 35882 ft 492 kts 223°
2026-04-21 13:26 -6.43251 -164.42645 35883 ft 492 kts 223°
2026-04-21 13:27 -6.48079 -164.47516 35885 ft 492 kts 223°
2026-04-21 13:27 -6.52874 -164.52355 35884 ft 492 kts 223°
2026-04-21 13:28 -6.57701 -164.57227 35883 ft 492 kts 223°
2026-04-21 13:28 -6.62528 -164.62101 35884 ft 492 kts 223°
2026-04-21 13:29 -6.67351 -164.66973 35886 ft 492 kts 223°
2026-04-21 13:29 -6.72149 -164.71820 35889 ft 492 kts 223°
2026-04-21 13:30 -6.76980 -164.76703 35883 ft 492 kts 223°
2026-04-21 13:30 -6.81808 -164.81585 35884 ft 492 kts 223°
2026-04-21 13:31 -6.86642 -164.86473 35881 ft 493 kts 223°
2026-04-21 13:31 -6.91445 -164.91332 35883 ft 493 kts 223°
2026-04-21 13:32 -6.96279 -164.96224 35887 ft 493 kts 223°
2026-04-21 13:32 -7.01119 -165.01122 36102 ft 491 kts 223°
2026-04-21 13:33 -7.03538 -165.03529 36439 ft 488 kts 223°
2026-04-21 13:33 -7.05932 -165.05871 36753 ft 485 kts 222°
2026-04-21 13:33 -7.08348 -165.08222 37017 ft 483 kts 222°
2026-04-21 13:33 -7.10765 -165.10572 37266 ft 482 kts 222°
2026-04-21 13:34 -7.13168 -165.12915 37487 ft 481 kts 223°
2026-04-21 13:34 -7.15565 -165.15259 37723 ft 480 kts 223°
2026-04-21 13:34 -7.17958 -165.17603 37872 ft 480 kts 223°
2026-04-21 13:34 -7.20355 -165.19955 37889 ft 483 kts 223°
2026-04-21 13:35 -7.25184 -165.24697 37888 ft 484 kts 223°
2026-04-21 13:35 -7.29973 -165.29403 37887 ft 484 kts 223°
2026-04-21 13:36 -7.34796 -165.34141 37887 ft 484 kts 223°
2026-04-21 13:36 -7.39618 -165.38880 37883 ft 484 kts 223°
2026-04-21 13:37 -7.44440 -165.43621 37883 ft 485 kts 223°
2026-04-21 13:37 -7.49232 -165.48333 37882 ft 485 kts 223°
2026-04-21 13:38 -7.54061 -165.53083 37884 ft 485 kts 223°
2026-04-21 13:38 -7.58885 -165.57831 37884 ft 485 kts 223°
2026-04-21 13:39 -7.63675 -165.62546 37883 ft 485 kts 223°
2026-04-21 13:39 -7.68501 -165.67299 37884 ft 485 kts 223°
2026-04-21 13:40 -7.73330 -165.72055 37886 ft 485 kts 223°
2026-04-21 13:40 -7.78156 -165.76810 37889 ft 485 kts 223°
2026-04-21 13:41 -7.82954 -165.81539 37886 ft 485 kts 223°
2026-04-21 13:41 -7.87783 -165.86301 37888 ft 485 kts 223°
2026-04-21 13:42 -7.92613 -165.91065 37884 ft 485 kts 223°
2026-04-21 13:42 -7.97436 -165.95824 37883 ft 485 kts 223°
2026-04-21 13:43 -8.02264 -166.00590 37884 ft 486 kts 223°
2026-04-21 13:43 -8.07063 -166.05328 37886 ft 486 kts 223°
2026-04-21 13:44 -8.11894 -166.10100 37885 ft 486 kts 222°
2026-04-21 13:44 -8.16721 -166.14869 37887 ft 486 kts 222°
2026-04-21 13:45 -8.21522 -166.19615 37886 ft 486 kts 222°
2026-04-21 13:45 -8.26354 -166.24393 37889 ft 487 kts 222°
2026-04-21 13:46 -8.31194 -166.29180 37885 ft 487 kts 222°
2026-04-21 13:46 -8.36034 -166.33969 37884 ft 487 kts 222°
2026-04-21 13:47 -8.40844 -166.38730 37883 ft 488 kts 222°
2026-04-21 13:47 -8.45689 -166.43528 37885 ft 488 kts 222°
2026-04-21 13:48 -8.50539 -166.48333 37885 ft 488 kts 222°
2026-04-21 13:48 -8.55390 -166.53139 37886 ft 489 kts 222°
2026-04-21 13:49 -8.60208 -166.57916 37885 ft 489 kts 222°
2026-04-21 13:49 -8.65062 -166.62730 37886 ft 489 kts 222°
2026-04-21 13:50 -8.69918 -166.67547 37882 ft 489 kts 222°
2026-04-21 13:50 -8.74774 -166.72367 37884 ft 489 kts 222°
2026-04-21 13:51 -8.79596 -166.77154 37885 ft 489 kts 222°
2026-04-21 13:51 -8.84451 -166.81977 37883 ft 489 kts 222°
2026-04-21 13:52 -8.89307 -166.86802 37884 ft 489 kts 222°
2026-04-21 13:52 -8.94163 -166.91629 37885 ft 489 kts 222°
2026-04-21 13:53 -8.98982 -166.96421 37884 ft 490 kts 222°
2026-04-21 13:53 -9.03839 -167.01253 37889 ft 490 kts 222°
2026-04-21 13:54 -9.08698 -167.06088 37885 ft 490 kts 222°
2026-04-21 13:54 -9.13552 -167.10921 37885 ft 490 kts 222°
2026-04-21 13:55 -9.18376 -167.15726 37885 ft 490 kts 221°
2026-04-21 13:55 -9.23236 -167.20568 37884 ft 490 kts 221°
2026-04-21 13:56 -9.28092 -167.25409 37884 ft 490 kts 221°
2026-04-21 13:56 -9.32945 -167.30250 37888 ft 490 kts 221°
2026-04-21 13:57 -9.37772 -167.35065 37886 ft 490 kts 221°
2026-04-21 13:57 -9.42627 -167.39911 37887 ft 490 kts 221°
2026-04-21 13:58 -9.47483 -167.44759 37885 ft 490 kts 221°
2026-04-21 13:58 -9.52311 -167.49581 37885 ft 490 kts 221°
2026-04-21 13:59 -9.57165 -167.54432 37886 ft 490 kts 221°
2026-04-21 13:59 -9.62020 -167.59286 37886 ft 490 kts 221°
2026-04-21 14:00 -9.66872 -167.64139 37885 ft 490 kts 221°
2026-04-21 14:00 -9.71693 -167.68963 37888 ft 490 kts 222°
2026-04-21 14:01 -9.76543 -167.73818 37886 ft 490 kts 222°
2026-04-21 14:01 -9.81396 -167.78678 37885 ft 490 kts 222°
2026-04-21 14:02 -9.86214 -167.83505 37886 ft 490 kts 222°
2026-04-21 14:03 -9.93493 -167.90802 37884 ft 490 kts 222°
2026-04-21 14:03 -9.98336 -167.95660 37883 ft 490 kts 222°
2026-04-21 14:04 -10.03178 -168.00519 37884 ft 489 kts 222°
2026-04-21 14:04 -10.07975 -168.05335 37890 ft 488 kts 222°
2026-04-21 14:05 -10.12806 -168.10187 37886 ft 488 kts 222°
2026-04-21 14:05 -10.17625 -168.15028 37888 ft 487 kts 222°
2026-04-21 14:06 -10.22439 -168.19868 37886 ft 487 kts 222°
2026-04-21 14:06 -10.27215 -168.24671 37888 ft 486 kts 222°
2026-04-21 14:07 -10.32016 -168.29501 37892 ft 486 kts 222°
2026-04-21 14:07 -10.36808 -168.34325 37888 ft 485 kts 222°
2026-04-21 14:08 -10.41604 -168.39155 37891 ft 485 kts 222°
2026-04-21 14:08 -10.46353 -168.43939 37889 ft 484 kts 222°
2026-04-21 14:09 -10.51134 -168.48759 37889 ft 484 kts 222°
2026-04-21 14:09 -10.55913 -168.53578 37886 ft 484 kts 222°
2026-04-21 14:10 -10.60689 -168.58397 37891 ft 484 kts 222°
2026-04-21 14:10 -10.65432 -168.63184 37893 ft 484 kts 222°
2026-04-21 14:11 -10.70207 -168.68007 37894 ft 484 kts 222°
2026-04-21 14:11 -10.74979 -168.72827 37893 ft 484 kts 223°
2026-04-21 14:12 -10.79759 -168.77658 37892 ft 484 kts 223°
2026-04-21 14:12 -10.84506 -168.82459 37897 ft 485 kts 223°
2026-04-21 14:13 -10.89288 -168.87298 37891 ft 485 kts 223°
2026-04-21 14:13 -10.94079 -168.92147 37894 ft 486 kts 223°
2026-04-21 14:14 -10.98863 -168.96993 37894 ft 486 kts 223°
2026-04-21 14:14 -11.03625 -169.01817 37892 ft 486 kts 223°
2026-04-21 14:15 -11.08422 -169.06681 37896 ft 487 kts 223°
2026-04-21 14:15 -11.13221 -169.11549 37900 ft 487 kts 223°
2026-04-21 14:16 -11.18016 -169.16414 37893 ft 487 kts 223°
2026-04-21 14:16 -11.22782 -169.21252 37893 ft 487 kts 223°
2026-04-21 14:17 -11.27583 -169.26129 37896 ft 487 kts 223°
2026-04-21 14:17 -11.32375 -169.30999 37896 ft 487 kts 223°
2026-04-21 14:18 -11.37167 -169.35871 37897 ft 487 kts 223°
2026-04-21 14:18 -11.41925 -169.40711 37901 ft 486 kts 223°
2026-04-21 14:19 -11.46714 -169.45585 37898 ft 486 kts 223°
2026-04-21 14:19 -11.51502 -169.50461 37897 ft 486 kts 223°
2026-04-21 14:20 -11.56286 -169.55335 37897 ft 486 kts 223°
2026-04-21 14:20 -11.61034 -169.60174 37897 ft 486 kts 223°
2026-04-21 14:21 -11.65813 -169.65048 37899 ft 486 kts 223°
2026-04-21 14:21 -11.70590 -169.69922 37897 ft 486 kts 223°
2026-04-21 14:22 -11.75366 -169.74797 37899 ft 485 kts 224°
2026-04-21 14:22 -11.80106 -169.79639 37897 ft 485 kts 224°
2026-04-21 14:23 -11.84877 -169.84516 37900 ft 485 kts 224°
2026-04-21 14:23 -11.89647 -169.89393 37904 ft 485 kts 224°
2026-04-21 14:24 -11.94415 -169.94271 37902 ft 485 kts 224°
2026-04-21 14:24 -11.99153 -169.99121 37902 ft 485 kts 224°
2026-04-21 14:25 -12.03876 -170.04057 37901 ft 486 kts 225°
2026-04-21 14:25 -12.08500 -170.09090 37900 ft 486 kts 226°
2026-04-21 14:26 -12.13122 -170.14128 37904 ft 486 kts 225°
2026-04-21 14:26 -12.17729 -170.19117 37905 ft 486 kts 225°
2026-04-21 14:27 -12.22375 -170.24134 37900 ft 486 kts 225°
2026-04-21 14:27 -12.27021 -170.29154 37903 ft 486 kts 225°
2026-04-21 14:28 -12.31666 -170.34177 37904 ft 486 kts 225°
2026-04-21 14:28 -12.36280 -170.39169 37906 ft 486 kts 225°
2026-04-21 14:29 -12.40926 -170.44199 37903 ft 486 kts 225°
2026-04-21 14:29 -12.45567 -170.49225 37908 ft 486 kts 225°
2026-04-21 14:30 -12.50209 -170.54257 37904 ft 486 kts 225°
2026-04-21 14:30 -12.54812 -170.59248 37902 ft 486 kts 225°
2026-04-21 14:31 -12.59449 -170.64278 37905 ft 486 kts 226°
2026-04-21 14:31 -12.64084 -170.69311 37907 ft 486 kts 226°
2026-04-21 14:32 -12.68716 -170.74343 37903 ft 486 kts 226°
2026-04-21 14:32 -12.73319 -170.79345 37904 ft 486 kts 226°
2026-04-21 14:33 -12.77948 -170.84379 37902 ft 486 kts 226°
2026-04-21 14:33 -12.82582 -170.89421 37905 ft 486 kts 226°
2026-04-21 14:34 -12.87183 -170.94430 37906 ft 486 kts 226°
2026-04-21 14:34 -12.91809 -170.99469 37906 ft 486 kts 226°
2026-04-21 14:35 -12.96439 -171.04516 37907 ft 486 kts 226°
2026-04-21 14:35 -13.01066 -171.09562 37906 ft 486 kts 226°
2026-04-21 14:36 -13.05695 -171.14613 37906 ft 486 kts 226°
2026-04-21 14:36 -13.10289 -171.19628 37909 ft 486 kts 226°
2026-04-21 14:37 -13.14915 -171.24682 37908 ft 486 kts 226°
2026-04-21 14:37 -13.19535 -171.29732 37911 ft 486 kts 226°
2026-04-21 14:38 -13.24158 -171.34789 37907 ft 485 kts 226°
2026-04-21 14:38 -13.28744 -171.39808 37908 ft 485 kts 226°
2026-04-21 14:39 -13.33367 -171.44870 37908 ft 486 kts 226°
2026-04-21 14:39 -13.37986 -171.49932 37908 ft 485 kts 226°
2026-04-21 14:40 -13.42570 -171.54958 37908 ft 485 kts 226°
2026-04-21 14:40 -13.47181 -171.60017 37907 ft 485 kts 226°
2026-04-21 14:41 -13.51795 -171.65084 37910 ft 486 kts 226°
2026-04-21 14:41 -13.56416 -171.70159 37912 ft 487 kts 226°
2026-04-21 14:42 -13.61043 -171.75244 37918 ft 488 kts 226°
2026-04-21 14:42 -13.65651 -171.80312 37921 ft 489 kts 226°
2026-04-21 14:43 -13.70298 -171.85426 37927 ft 490 kts 226°
2026-04-21 14:43 -13.74957 -171.90554 37933 ft 491 kts 226°
2026-04-21 14:44 -13.79630 -171.95704 37941 ft 492 kts 226°
2026-04-21 14:44 -13.84274 -172.00824 37937 ft 493 kts 226°
2026-04-21 14:45 -13.89002 -172.05945 37940 ft 494 kts 226°
2026-04-21 14:45 -13.93752 -172.11050 37934 ft 494 kts 226°
2026-04-21 14:46 -13.98493 -172.16162 37929 ft 493 kts 226°
2026-04-21 14:46 -14.03194 -172.21248 37921 ft 493 kts 226°
2026-04-21 14:47 -14.07923 -172.26369 37914 ft 493 kts 226°
2026-04-21 14:47 -14.12640 -172.31482 37914 ft 493 kts 226°
2026-04-21 14:48 -14.17361 -172.36600 37914 ft 492 kts 226°
2026-04-21 14:48 -14.22047 -172.41685 37914 ft 492 kts 226°
2026-04-21 14:49 -14.26758 -172.46801 37914 ft 492 kts 226°
2026-04-21 14:49 -14.31466 -172.51915 37915 ft 492 kts 226°
2026-04-21 14:50 -14.35376 -172.56165 37915 ft 491 kts 226°
2026-04-21 14:50 -14.40839 -172.62108 37918 ft 491 kts 226°
2026-04-21 14:51 -14.45531 -172.67217 37915 ft 490 kts 226°
2026-04-21 14:51 -14.50222 -172.72326 37914 ft 490 kts 226°
2026-04-21 14:52 -14.54908 -172.77434 37914 ft 490 kts 226°
2026-04-21 14:52 -14.59559 -172.82507 37915 ft 490 kts 226°
2026-04-21 14:53 -14.64239 -172.87615 37918 ft 490 kts 226°
2026-04-21 14:53 -14.68921 -172.92729 37917 ft 490 kts 226°
2026-04-21 14:54 -14.73606 -172.97849 37919 ft 491 kts 226°
2026-04-21 14:54 -14.78295 -173.02977 37921 ft 491 kts 226°
2026-04-21 14:55 -14.82952 -173.08074 37919 ft 491 kts 226°
2026-04-21 14:55 -14.87644 -173.13212 37920 ft 491 kts 226°
2026-04-21 14:56 -14.92331 -173.18348 37921 ft 491 kts 226°
2026-04-21 14:56 -14.97020 -173.23491 37920 ft 492 kts 226°
2026-04-21 14:57 -15.01683 -173.28608 37920 ft 492 kts 226°
2026-04-21 14:57 -15.06380 -173.33765 37922 ft 492 kts 226°
2026-04-21 14:58 -15.11076 -173.38925 37923 ft 493 kts 226°
2026-04-21 14:58 -15.15742 -173.44055 37925 ft 493 kts 226°
2026-04-21 14:59 -15.20441 -173.49226 37925 ft 493 kts 226°
2026-04-21 14:59 -15.25138 -173.54398 37925 ft 493 kts 226°
2026-04-21 15:00 -15.29834 -173.59572 37930 ft 493 kts 226°
2026-04-21 15:00 -15.34499 -173.64717 37928 ft 493 kts 227°
2026-04-21 15:01 -15.39195 -173.69899 37923 ft 493 kts 227°
2026-04-21 15:01 -15.43893 -173.75086 37926 ft 493 kts 227°
2026-04-21 15:02 -15.48590 -173.80277 37929 ft 494 kts 227°
2026-04-21 15:02 -15.53253 -173.85432 37929 ft 494 kts 227°
2026-04-21 15:03 -15.57950 -173.90631 37931 ft 494 kts 227°
2026-04-21 15:03 -15.62650 -173.95836 37931 ft 494 kts 227°
2026-04-21 15:04 -15.67344 -174.01036 37933 ft 494 kts 227°
2026-04-21 15:04 -15.72004 -174.06205 37934 ft 493 kts 227°
2026-04-21 15:05 -15.76693 -174.11408 37934 ft 493 kts 227°
2026-04-21 15:05 -15.83709 -174.19202 37936 ft 492 kts 227°
2026-04-21 15:06 -15.88351 -174.24363 37935 ft 492 kts 227°
2026-04-21 15:06 -15.93021 -174.29560 37936 ft 491 kts 227°
2026-04-21 15:07 -15.97682 -174.34748 37931 ft 491 kts 227°
2026-04-21 15:07 -16.02340 -174.39938 37932 ft 491 kts 227°
2026-04-21 15:08 -16.06964 -174.45094 37938 ft 490 kts 228°
2026-04-21 15:08 -16.11608 -174.50279 37934 ft 490 kts 228°
2026-04-21 15:09 -16.16258 -174.55470 37935 ft 490 kts 228°
2026-04-21 15:09 -16.20909 -174.60665 37933 ft 490 kts 228°
2026-04-21 15:10 -16.25525 -174.65830 37938 ft 491 kts 228°
2026-04-21 15:10 -16.30169 -174.71027 37936 ft 491 kts 228°
2026-04-21 15:11 -16.34818 -174.76233 37938 ft 491 kts 228°
2026-04-21 15:11 -16.39467 -174.81445 37936 ft 491 kts 228°
2026-04-21 15:12 -16.44086 -174.86626 37938 ft 491 kts 228°
2026-04-21 15:12 -16.48735 -174.91845 37943 ft 491 kts 228°
2026-04-21 15:13 -16.53384 -174.97068 37935 ft 492 kts 228°
2026-04-21 15:13 -16.57999 -175.02256 37940 ft 492 kts 228°
2026-04-21 15:14 -16.62649 -175.07488 37940 ft 491 kts 228°
2026-04-21 15:14 -16.67291 -175.12715 37939 ft 491 kts 228°
2026-04-21 15:15 -16.71932 -175.17945 37939 ft 491 kts 228°
2026-04-21 15:15 -16.76538 -175.23139 37937 ft 491 kts 229°
2026-04-21 15:16 -16.81171 -175.28368 37939 ft 491 kts 229°
2026-04-21 15:16 -16.85805 -175.33601 37941 ft 490 kts 229°
2026-04-21 15:17 -16.90430 -175.38830 37943 ft 490 kts 229°
2026-04-21 15:17 -16.95051 -175.44057 37943 ft 490 kts 229°
2026-04-21 15:18 -16.99641 -175.49253 37941 ft 489 kts 229°
2026-04-21 15:18 -17.04250 -175.54475 37940 ft 489 kts 229°
2026-04-21 15:19 -17.08858 -175.59699 37946 ft 489 kts 229°
2026-04-21 15:19 -17.13461 -175.64923 37943 ft 488 kts 229°
2026-04-21 15:20 -17.18031 -175.70113 37945 ft 488 kts 229°
2026-04-21 15:20 -17.22632 -175.75341 37944 ft 488 kts 229°
2026-04-21 15:21 -17.27224 -175.80565 37943 ft 488 kts 229°
2026-04-21 15:21 -17.31814 -175.85790 37948 ft 488 kts 229°
2026-04-21 15:22 -17.36373 -175.90983 37947 ft 488 kts 229°
2026-04-21 15:22 -17.40956 -175.96209 37950 ft 487 kts 229°
2026-04-21 15:23 -17.45539 -176.01438 37948 ft 487 kts 229°
2026-04-21 15:23 -17.50090 -176.06635 37950 ft 487 kts 229°
2026-04-21 15:24 -17.54670 -176.11870 37951 ft 487 kts 230°
2026-04-21 15:24 -17.59245 -176.17102 37952 ft 487 kts 230°
2026-04-21 15:25 -17.63818 -176.22336 37953 ft 487 kts 230°
2026-04-21 15:25 -17.68356 -176.27536 37952 ft 487 kts 230°
2026-04-21 15:26 -17.72928 -176.32779 37953 ft 487 kts 230°
2026-04-21 15:26 -17.77501 -176.38025 37950 ft 487 kts 230°
2026-04-21 15:27 -17.82071 -176.43274 37950 ft 487 kts 230°
2026-04-21 15:27 -17.86608 -176.48488 37953 ft 487 kts 230°
2026-04-21 15:28 -17.91175 -176.53742 37954 ft 487 kts 230°
2026-04-21 15:28 -17.95746 -176.59004 37952 ft 487 kts 230°
2026-04-21 15:29 -18.00313 -176.64267 37950 ft 488 kts 230°
2026-04-21 15:29 -18.04852 -176.69502 37951 ft 488 kts 230°
2026-04-21 15:30 -18.09418 -176.74771 37954 ft 488 kts 231°
2026-04-21 15:30 -18.13983 -176.80045 37955 ft 488 kts 231°
2026-04-21 15:31 -18.18603 -176.85274 37954 ft 488 kts 229°
2026-04-21 15:31 -18.23321 -176.90361 37955 ft 489 kts 229°
2026-04-21 15:32 -18.28072 -176.95479 37955 ft 489 kts 229°
2026-04-21 15:32 -18.32796 -177.00617 37955 ft 489 kts 229°
2026-04-21 15:33 -18.37484 -177.05739 37955 ft 489 kts 230°
2026-04-21 15:33 -18.42198 -177.10898 37956 ft 489 kts 230°
2026-04-21 15:34 -18.46914 -177.16062 37954 ft 489 kts 230°
2026-04-21 15:34 -18.51626 -177.21224 37955 ft 489 kts 230°
2026-04-21 15:35 -18.56307 -177.26358 37957 ft 489 kts 230°
2026-04-21 15:35 -18.61016 -177.31525 37956 ft 489 kts 230°
2026-04-21 15:36 -18.65727 -177.36699 37956 ft 489 kts 230°
2026-04-21 15:36 -18.70434 -177.41874 37953 ft 489 kts 230°
2026-04-21 15:37 -18.75107 -177.47015 37957 ft 489 kts 230°
2026-04-21 15:37 -18.79809 -177.52193 37952 ft 489 kts 230°
2026-04-21 15:38 -18.84511 -177.57376 37951 ft 489 kts 230°
2026-04-21 15:38 -18.89180 -177.62526 37951 ft 488 kts 230°
2026-04-21 15:39 -18.93872 -177.67706 37950 ft 488 kts 230°
2026-04-21 15:39 -18.98565 -177.72892 37950 ft 488 kts 230°
2026-04-21 15:40 -19.03253 -177.78077 37948 ft 488 kts 230°
2026-04-21 15:40 -19.07937 -177.83262 37947 ft 487 kts 230°
2026-04-21 15:41 -19.12583 -177.88409 37946 ft 487 kts 230°
2026-04-21 15:41 -19.17256 -177.93591 37945 ft 487 kts 230°
2026-04-21 15:42 -19.21930 -177.98779 37950 ft 487 kts 230°
2026-04-21 15:42 -19.26566 -178.03928 37950 ft 487 kts 230°
2026-04-21 15:43 -19.31235 -178.09119 37952 ft 487 kts 230°
2026-04-21 15:43 -19.35905 -178.14315 37946 ft 487 kts 230°
2026-04-21 15:44 -19.40577 -178.19520 37947 ft 487 kts 230°
2026-04-21 15:44 -19.45217 -178.24692 37946 ft 488 kts 230°
2026-04-21 15:45 -19.49893 -178.29910 37949 ft 488 kts 230°
2026-04-21 15:45 -19.54568 -178.35130 37946 ft 488 kts 230°
2026-04-21 15:46 -19.59248 -178.40361 37947 ft 489 kts 230°
2026-04-21 15:46 -19.63931 -178.45601 37942 ft 490 kts 231°
2026-04-21 15:47 -19.68590 -178.50818 37951 ft 490 kts 231°
2026-04-21 15:47 -19.73280 -178.56075 37949 ft 491 kts 231°
2026-04-21 15:48 -19.77972 -178.61338 37946 ft 491 kts 231°
2026-04-21 15:48 -19.82668 -178.66611 37943 ft 491 kts 231°
2026-04-21 15:49 -19.87333 -178.71854 37942 ft 492 kts 231°
2026-04-21 15:49 -19.92034 -178.77142 37947 ft 492 kts 231°
2026-04-21 15:50 -19.96725 -178.82425 37943 ft 492 kts 231°
2026-04-21 15:50 -20.01418 -178.87713 37946 ft 491 kts 231°
2026-04-21 15:51 -20.06103 -178.92998 37945 ft 491 kts 231°
2026-04-21 15:51 -20.10756 -178.98252 37946 ft 491 kts 231°
2026-04-21 15:52 -20.15434 -179.03538 37945 ft 490 kts 231°
2026-04-21 15:52 -20.20105 -179.08823 37944 ft 490 kts 231°
2026-04-21 15:53 -20.24775 -179.14110 37946 ft 490 kts 231°
2026-04-21 15:53 -20.29411 -179.19365 37942 ft 490 kts 231°
2026-04-21 15:54 -20.34075 -179.24656 37945 ft 490 kts 231°
2026-04-21 15:54 -20.38734 -179.29946 37945 ft 490 kts 231°
2026-04-21 15:55 -20.43366 -179.35211 37946 ft 490 kts 231°
2026-04-21 15:55 -20.48031 -179.40517 37947 ft 490 kts 232°
2026-04-21 15:56 -20.52693 -179.45827 37947 ft 490 kts 232°
2026-04-21 15:56 -20.57350 -179.51134 37946 ft 490 kts 232°
2026-04-21 15:57 -20.61982 -179.56419 37949 ft 491 kts 232°
2026-04-21 15:57 -20.66640 -179.61738 37948 ft 491 kts 232°
2026-04-21 15:58 -20.71296 -179.67061 37936 ft 490 kts 232°
2026-04-21 15:58 -20.75942 -179.72375 37953 ft 489 kts 232°
2026-04-21 15:59 -20.80546 -179.77649 37933 ft 488 kts 232°
2026-04-21 15:59 -20.85166 -179.82945 37940 ft 487 kts 232°
2026-04-21 16:00 -20.89775 -179.88235 37944 ft 486 kts 232°
2026-04-21 16:00 -20.94372 -179.93515 37940 ft 484 kts 232°
2026-04-21 16:01 -20.98927 -179.98751 37951 ft 483 kts 232°
2026-04-21 16:01 -21.03422 179.95910 37943 ft 481 kts 234°
2026-04-21 16:02 -21.07700 179.90409 37944 ft 480 kts 235°
2026-04-21 16:02 -21.11966 179.84899 37949 ft 481 kts 235°
2026-04-21 16:03 -21.16234 179.79453 37946 ft 481 kts 234°
2026-04-21 16:03 -21.20545 179.73982 37949 ft 481 kts 234°
2026-04-21 16:04 -21.24857 179.68510 37947 ft 480 kts 234°
2026-04-21 16:04 -21.29162 179.63037 37946 ft 480 kts 234°
2026-04-21 16:05 -21.33436 179.57598 37943 ft 480 kts 234°
2026-04-21 16:05 -21.37727 179.52130 37944 ft 479 kts 234°
2026-04-21 16:06 -21.42018 179.46657 37943 ft 479 kts 235°
2026-04-21 16:06 -21.46298 179.41193 37950 ft 478 kts 235°
2026-04-21 16:07 -21.50546 179.35763 37947 ft 478 kts 235°
2026-04-21 16:07 -21.54820 179.30295 37951 ft 477 kts 235°
2026-04-21 16:08 -21.61215 179.22104 37946 ft 477 kts 235°
2026-04-21 16:09 -21.65469 179.16648 37948 ft 476 kts 235°
2026-04-21 16:09 -21.69693 179.11226 37949 ft 476 kts 236°
2026-04-21 16:10 -21.73939 179.05768 37951 ft 475 kts 236°
2026-04-21 16:10 -21.78178 179.00316 37950 ft 475 kts 236°
2026-04-21 16:11 -21.82410 178.94865 37955 ft 474 kts 236°
2026-04-21 16:11 -21.86610 178.89452 37955 ft 474 kts 236°
2026-04-21 16:12 -21.90116 178.84929 37946 ft 473 kts 236°
2026-04-21 16:12 -21.95041 178.78568 37955 ft 472 kts 236°
2026-04-21 16:13 -21.99217 178.73167 37951 ft 472 kts 236°
2026-04-21 16:13 -22.03410 178.67741 37954 ft 471 kts 237°
2026-04-21 16:14 -22.07594 178.62320 37949 ft 470 kts 237°
2026-04-21 16:14 -22.11766 178.56909 37956 ft 469 kts 237°
2026-04-21 16:15 -22.15903 178.51539 37957 ft 468 kts 237°
2026-04-21 16:15 -22.20058 178.46139 37950 ft 467 kts 237°
2026-04-21 16:16 -22.24203 178.40746 37958 ft 467 kts 237°
2026-04-21 16:16 -22.28348 178.35349 37960 ft 466 kts 237°
2026-04-21 16:17 -22.32451 178.30000 37959 ft 466 kts 237°
2026-04-21 16:17 -22.36581 178.24611 37961 ft 465 kts 237°
2026-04-21 16:18 -22.40700 178.19230 37961 ft 465 kts 237°
2026-04-21 16:18 -22.44819 178.13846 37964 ft 464 kts 238°
2026-04-21 16:19 -22.48901 178.08503 37970 ft 464 kts 238°
2026-04-21 16:19 -22.53009 178.03120 37967 ft 463 kts 238°
2026-04-21 16:20 -22.57104 177.97749 37971 ft 463 kts 238°
2026-04-21 16:20 -22.61175 177.92404 37967 ft 463 kts 238°
2026-04-21 16:21 -22.65266 177.87028 37966 ft 462 kts 238°
2026-04-21 16:21 -22.69346 177.81660 37972 ft 462 kts 238°
2026-04-21 16:22 -22.73423 177.76290 37970 ft 461 kts 238°
2026-04-21 16:22 -22.77464 177.70963 37974 ft 461 kts 238°
2026-04-21 16:23 -22.81527 177.65602 37968 ft 460 kts 238°
2026-04-21 16:23 -22.85585 177.60241 37968 ft 460 kts 238°
2026-04-21 16:24 -22.89638 177.54881 37971 ft 459 kts 238°
2026-04-21 16:24 -22.93655 177.49562 37977 ft 459 kts 238°
2026-04-21 16:25 -22.97697 177.44207 37973 ft 458 kts 238°
2026-04-21 16:25 -23.01729 177.38857 37978 ft 458 kts 238°
2026-04-21 16:26 -23.05760 177.33505 37974 ft 457 kts 239°
2026-04-21 16:26 -23.09754 177.28194 37978 ft 457 kts 239°
2026-04-21 16:27 -23.13775 177.22844 37980 ft 457 kts 239°
2026-04-21 16:27 -23.17787 177.17500 37977 ft 456 kts 239°
2026-04-21 16:28 -23.21795 177.12155 37981 ft 456 kts 239°
2026-04-21 16:28 -23.25771 177.06848 37983 ft 456 kts 239°
2026-04-21 16:29 -23.29096 177.02405 37986 ft 455 kts 239°
2026-04-21 16:29 -23.33765 176.96159 37984 ft 455 kts 239°
2026-04-21 16:30 -23.37725 176.90855 37982 ft 454 kts 239°
2026-04-21 16:30 -23.41707 176.85518 37983 ft 454 kts 239°
2026-04-21 16:31 -23.45678 176.80189 37985 ft 453 kts 239°
2026-04-21 16:31 -23.49645 176.74860 37987 ft 452 kts 239°
2026-04-21 16:32 -23.53580 176.69568 37983 ft 452 kts 239°
2026-04-21 16:32 -23.57531 176.64250 37987 ft 451 kts 239°
2026-04-21 16:33 -23.61471 176.58940 37986 ft 450 kts 240°
2026-04-21 16:33 -23.65405 176.53632 37985 ft 450 kts 240°
2026-04-21 16:34 -23.69304 176.48367 37998 ft 449 kts 240°
2026-04-21 16:34 -23.73223 176.43069 37990 ft 448 kts 240°
2026-04-21 16:35 -23.77134 176.37776 37985 ft 447 kts 240°
2026-04-21 16:35 -23.81035 176.32491 37993 ft 447 kts 240°
2026-04-21 16:36 -23.84907 176.27240 37995 ft 446 kts 240°
2026-04-21 16:36 -23.88790 176.21967 37995 ft 445 kts 240°
2026-04-21 16:37 -23.92675 176.16690 38000 ft 446 kts 241°
2026-04-21 16:37 -23.96562 176.11392 37990 ft 452 kts 241°
2026-04-21 16:38 -24.00497 176.06029 37990 ft 452 kts 241°
2026-04-21 16:38 -24.04431 176.00672 37993 ft 451 kts 241°
2026-04-21 16:39 -24.08352 175.95322 37987 ft 451 kts 242°
2026-04-21 16:39 -24.12245 175.90004 37983 ft 450 kts 242°
2026-04-21 16:40 -24.16155 175.84655 37987 ft 450 kts 242°
2026-04-21 16:40 -24.20057 175.79310 37987 ft 449 kts 242°
2026-04-21 16:41 -24.23296 175.74870 37987 ft 449 kts 242°
2026-04-21 16:41 -24.27848 175.68623 37988 ft 448 kts 242°
2026-04-21 16:42 -24.31709 175.63317 37984 ft 448 kts 242°
2026-04-21 16:42 -24.35596 175.57971 37985 ft 449 kts 242°
2026-04-21 16:43 -24.39485 175.52615 37986 ft 449 kts 242°
2026-04-21 16:43 -24.43348 175.47290 37985 ft 449 kts 242°
2026-04-21 16:44 -24.47232 175.41930 37984 ft 449 kts 242°
2026-04-21 16:44 -24.51121 175.36558 37981 ft 449 kts 242°
2026-04-21 16:45 -24.55004 175.31187 37983 ft 449 kts 242°
2026-04-21 16:45 -24.58865 175.25842 37978 ft 450 kts 243°
2026-04-21 16:46 -24.62754 175.20451 37980 ft 450 kts 243°
2026-04-21 16:46 -24.66638 175.15061 37982 ft 450 kts 243°
2026-04-21 16:47 -24.70527 175.09659 37977 ft 450 kts 243°
2026-04-21 16:47 -24.74387 175.04291 37979 ft 451 kts 243°
2026-04-21 16:48 -24.78273 174.98879 37978 ft 451 kts 243°
2026-04-21 16:48 -24.82162 174.93459 37982 ft 451 kts 243°
2026-04-21 16:49 -24.86026 174.88068 37976 ft 451 kts 243°
2026-04-21 16:49 -24.89911 174.82639 37976 ft 451 kts 243°
2026-04-21 16:50 -24.93796 174.77206 37977 ft 451 kts 243°
2026-04-21 16:50 -24.97678 174.71772 37975 ft 451 kts 244°
2026-04-21 16:50 -24.99619 174.69051 38096 ft 452 kts 244°
2026-04-21 16:51 -25.01548 174.66333 38438 ft 448 kts 244°
2026-04-21 16:51 -25.03385 174.63647 38751 ft 443 kts 245°
2026-04-21 16:51 -25.05206 174.60920 38987 ft 441 kts 246°
2026-04-21 16:51 -25.07012 174.58189 39173 ft 440 kts 246°
2026-04-21 16:52 -25.08814 174.55463 39344 ft 440 kts 246°
2026-04-21 16:52 -25.10618 174.52746 39522 ft 439 kts 245°
2026-04-21 16:52 -25.11817 174.50946 39635 ft 439 kts 245°
2026-04-21 16:52 -25.14241 174.47321 39859 ft 438 kts 245°
2026-04-21 16:53 -25.16052 174.44616 39960 ft 439 kts 245°
2026-04-21 16:53 -25.19665 174.39218 39973 ft 440 kts 245°
2026-04-21 16:54 -25.23300 174.33790 39973 ft 439 kts 245°
2026-04-21 16:54 -25.26928 174.28361 39972 ft 439 kts 245°
2026-04-21 16:55 -25.30556 174.22924 39973 ft 439 kts 246°
2026-04-21 16:55 -25.34179 174.17488 39975 ft 439 kts 246°
2026-04-21 16:56 -25.37779 174.12083 39973 ft 439 kts 246°
2026-04-21 16:56 -25.41403 174.06633 39972 ft 440 kts 246°
2026-04-21 16:57 -25.45022 174.01185 39966 ft 440 kts 246°
2026-04-21 16:57 -25.48621 173.95762 39972 ft 440 kts 246°
2026-04-21 16:58 -25.52238 173.90304 39966 ft 440 kts 246°
2026-04-21 16:58 -25.55855 173.84840 39962 ft 440 kts 246°
2026-04-21 16:59 -25.59470 173.79373 39971 ft 440 kts 246°
2026-04-21 16:59 -25.63058 173.73941 39967 ft 440 kts 246°
2026-04-21 17:00 -25.66665 173.68474 39968 ft 440 kts 247°
2026-04-21 17:00 -25.69664 173.63922 39971 ft 440 kts 247°
2026-04-21 17:01 -25.73875 173.57524 39965 ft 439 kts 247°
2026-04-21 17:01 -25.77451 173.52085 39966 ft 439 kts 247°
2026-04-21 17:02 -25.81045 173.46612 39970 ft 439 kts 247°
2026-04-21 17:02 -25.84635 173.41138 39967 ft 438 kts 247°
2026-04-21 17:03 -25.87615 173.36589 39969 ft 438 kts 247°
2026-04-21 17:03 -25.91778 173.30227 39972 ft 438 kts 247°
2026-04-21 17:04 -25.95351 173.24759 39971 ft 437 kts 247°
2026-04-21 17:04 -25.98317 173.20216 39973 ft 437 kts 247°
2026-04-21 17:05 -26.02462 173.13860 39973 ft 436 kts 247°
2026-04-21 17:05 -26.06015 173.08403 39973 ft 436 kts 247°
2026-04-21 17:06 -26.09571 173.02936 39972 ft 436 kts 248°
2026-04-21 17:06 -26.12522 172.98394 39973 ft 435 kts 248°
2026-04-21 17:07 -26.16066 172.92934 39966 ft 435 kts 248°
2026-04-21 17:07 -26.20182 172.86583 39970 ft 435 kts 248°
2026-04-21 17:08 -26.23120 172.82045 39967 ft 435 kts 248°
2026-04-21 17:08 -26.26654 172.76580 39967 ft 434 kts 248°
2026-04-21 17:09 -26.32517 172.67499 39967 ft 434 kts 248°
2026-04-21 17:09 -26.35448 172.62953 39963 ft 434 kts 248°
2026-04-21 17:10 -26.38971 172.57483 39968 ft 434 kts 248°
2026-04-21 17:10 -26.42492 172.52010 39961 ft 434 kts 248°
2026-04-21 17:11 -26.46007 172.46537 39970 ft 434 kts 248°
2026-04-21 17:11 -26.49502 172.41092 39957 ft 434 kts 248°
2026-04-21 17:12 -26.53013 172.35613 39966 ft 434 kts 248°
2026-04-21 17:12 -26.56524 172.30130 39969 ft 434 kts 248°
2026-04-21 17:13 -26.60036 172.24638 39969 ft 434 kts 249°
2026-04-21 17:13 -26.63521 172.19179 39971 ft 434 kts 249°
2026-04-21 17:14 -26.67024 172.13685 39969 ft 434 kts 249°
2026-04-21 17:14 -26.70530 172.08180 39965 ft 434 kts 249°
2026-04-21 17:15 -26.74035 172.02673 39968 ft 435 kts 249°
2026-04-21 17:15 -26.77516 171.97196 39964 ft 435 kts 249°
2026-04-21 17:16 -26.81018 171.91679 39965 ft 435 kts 249°
2026-04-21 17:16 -26.84520 171.86155 39964 ft 435 kts 249°
2026-04-21 17:17 -26.87995 171.80667 39966 ft 435 kts 249°
2026-04-21 17:17 -26.91491 171.75138 39965 ft 435 kts 249°
2026-04-21 17:18 -26.94989 171.69601 39964 ft 435 kts 249°
2026-04-21 17:18 -26.98482 171.64063 39964 ft 435 kts 249°
2026-04-21 17:19 -27.01953 171.58554 39959 ft 435 kts 249°
2026-04-21 17:19 -27.05447 171.53001 39961 ft 435 kts 249°
2026-04-21 17:20 -27.08936 171.47450 39958 ft 436 kts 249°
2026-04-21 17:20 -27.12426 171.41891 39959 ft 436 kts 249°
2026-04-21 17:21 -27.15888 171.36368 39958 ft 436 kts 249°
2026-04-21 17:21 -27.19372 171.30802 39956 ft 436 kts 249°
2026-04-21 17:22 -27.22857 171.25230 39958 ft 436 kts 249°
2026-04-21 17:22 -27.26340 171.19653 39956 ft 436 kts 249°
2026-04-21 17:23 -27.29799 171.14108 39955 ft 436 kts 249°
2026-04-21 17:23 -27.33277 171.08524 39954 ft 436 kts 249°
2026-04-21 17:24 -27.36754 171.02937 39955 ft 436 kts 249°
2026-04-21 17:24 -27.40232 170.97340 39953 ft 436 kts 249°
2026-04-21 17:25 -27.43681 170.91783 39957 ft 436 kts 249°
2026-04-21 17:25 -27.47149 170.86187 39955 ft 436 kts 249°
2026-04-21 17:26 -27.50616 170.80586 39960 ft 436 kts 249°
2026-04-21 17:26 -27.54061 170.75013 39955 ft 436 kts 249°
2026-04-21 17:27 -27.57527 170.69399 39955 ft 437 kts 249°
2026-04-21 17:27 -27.60995 170.63774 39954 ft 437 kts 249°
2026-04-21 17:28 -27.64462 170.58144 39954 ft 437 kts 249°
2026-04-21 17:28 -27.67935 170.52498 39955 ft 438 kts 248°
2026-04-21 17:29 -27.71382 170.46886 39957 ft 439 kts 248°
2026-04-21 17:29 -27.74858 170.41221 39953 ft 439 kts 248°
2026-04-21 17:30 -27.78336 170.35542 39955 ft 440 kts 248°
2026-04-21 17:30 -27.81817 170.29855 39951 ft 441 kts 248°
2026-04-21 17:31 -27.85277 170.24191 39953 ft 441 kts 248°
2026-04-21 17:31 -27.88765 170.18478 39952 ft 442 kts 248°
2026-04-21 17:32 -27.92253 170.12756 39951 ft 442 kts 247°
2026-04-21 17:32 -27.95722 170.07056 39949 ft 443 kts 247°
2026-04-21 17:33 -27.99197 170.01295 39949 ft 440 kts 249°
2026-04-21 17:33 -28.02036 169.95271 39950 ft 432 kts 254°
2026-04-21 17:34 -28.04655 169.89161 39952 ft 431 kts 255°
2026-04-21 17:34 -28.07224 169.83067 39951 ft 432 kts 255°
2026-04-21 17:35 -28.09820 169.76919 39950 ft 433 kts 255°
2026-04-21 17:35 -28.12423 169.70769 39955 ft 434 kts 254°
2026-04-21 17:36 -28.15015 169.64644 39952 ft 434 kts 254°
2026-04-21 17:36 -28.17622 169.58471 39958 ft 435 kts 254°
2026-04-21 17:37 -28.20230 169.52287 39946 ft 435 kts 254°
2026-04-21 17:37 -28.22839 169.46090 39959 ft 435 kts 254°
2026-04-21 17:38 -28.25426 169.39933 39951 ft 436 kts 254°
2026-04-21 17:38 -28.28031 169.33727 39952 ft 436 kts 254°
2026-04-21 17:39 -28.30636 169.27509 39954 ft 436 kts 253°
2026-04-21 17:39 -28.33241 169.21283 39954 ft 437 kts 253°
2026-04-21 17:40 -28.35825 169.15096 39951 ft 437 kts 253°
2026-04-21 17:40 -28.38425 169.08860 39955 ft 437 kts 253°
2026-04-21 17:41 -28.41026 169.02614 39957 ft 437 kts 253°
2026-04-21 17:41 -28.43624 168.96364 39957 ft 438 kts 253°
2026-04-21 17:42 -28.46203 168.90151 39958 ft 438 kts 253°
2026-04-21 17:42 -28.48799 168.83887 39958 ft 438 kts 253°
2026-04-21 17:43 -28.51390 168.77623 39955 ft 438 kts 253°
2026-04-21 17:43 -28.53980 168.71355 39958 ft 438 kts 253°
2026-04-21 17:44 -28.56550 168.65123 39956 ft 438 kts 253°
2026-04-21 17:44 -28.59135 168.58844 39959 ft 438 kts 253°
2026-04-21 17:45 -28.61719 168.52557 39957 ft 438 kts 253°
2026-04-21 17:45 -28.64282 168.46314 39956 ft 438 kts 253°
2026-04-21 17:46 -28.66859 168.40024 39956 ft 438 kts 253°
2026-04-21 17:46 -28.69434 168.33729 39956 ft 439 kts 253°
2026-04-21 17:47 -28.72006 168.27432 39960 ft 439 kts 253°
2026-04-21 17:47 -28.74558 168.21173 39962 ft 439 kts 252°
2026-04-21 17:48 -28.77129 168.14859 39962 ft 439 kts 252°
2026-04-21 17:48 -28.79692 168.08551 39964 ft 439 kts 252°
2026-04-21 17:49 -28.82238 168.02279 39968 ft 439 kts 252°
2026-04-21 17:49 -28.84800 167.95954 39964 ft 439 kts 252°
2026-04-21 17:50 -28.87356 167.89634 39965 ft 439 kts 252°
2026-04-21 17:50 -28.89912 167.83304 39967 ft 439 kts 252°
2026-04-21 17:51 -28.92444 167.77023 39967 ft 439 kts 252°
2026-04-21 17:51 -28.94996 167.70683 39968 ft 439 kts 252°
2026-04-21 17:52 -28.97543 167.64342 39964 ft 440 kts 252°
2026-04-21 17:52 -29.00091 167.57990 39967 ft 440 kts 252°
2026-04-21 17:53 -29.02620 167.51676 39970 ft 440 kts 252°
2026-04-21 17:53 -29.05165 167.45310 39977 ft 441 kts 252°
2026-04-21 17:54 -29.07709 167.38935 39967 ft 441 kts 252°
2026-04-21 17:54 -29.10254 167.32549 39971 ft 441 kts 252°
2026-04-21 17:55 -29.12780 167.26199 39975 ft 442 kts 252°
2026-04-21 17:55 -29.15322 167.19798 39977 ft 442 kts 252°
2026-04-21 17:56 -29.17862 167.13391 39976 ft 442 kts 252°
2026-04-21 17:56 -29.20400 167.06977 39976 ft 443 kts 252°
2026-04-21 17:57 -29.22920 167.00599 39979 ft 443 kts 252°
2026-04-21 17:57 -29.25455 166.94172 39986 ft 443 kts 252°
2026-04-21 17:58 -29.27988 166.87739 39981 ft 443 kts 251°
2026-04-21 17:58 -29.30503 166.81341 39983 ft 443 kts 251°
2026-04-21 17:59 -29.33032 166.74896 39982 ft 443 kts 251°
2026-04-21 17:59 -29.35556 166.68452 39986 ft 444 kts 251°
2026-04-21 18:00 -29.38082 166.61994 39983 ft 444 kts 251°
2026-04-21 18:00 -29.40605 166.55530 39983 ft 444 kts 251°
2026-04-21 18:01 -29.43108 166.49109 39988 ft 444 kts 251°
2026-04-21 18:01 -29.45625 166.42639 39989 ft 444 kts 251°
2026-04-21 18:02 -29.48142 166.36158 39989 ft 445 kts 251°
2026-04-21 18:02 -29.50656 166.29672 39992 ft 445 kts 251°
2026-04-21 18:03 -29.53150 166.23228 39992 ft 445 kts 251°
2026-04-21 18:03 -29.55661 166.16729 39993 ft 445 kts 251°
2026-04-21 18:04 -29.58170 166.10224 39999 ft 446 kts 251°
2026-04-21 18:04 -29.60678 166.03707 39998 ft 446 kts 251°
2026-04-21 18:05 -29.63165 165.97234 39995 ft 446 kts 250°
2026-04-21 18:05 -29.65671 165.90701 39996 ft 447 kts 250°
2026-04-21 18:06 -29.68177 165.84157 39999 ft 447 kts 250°
2026-04-21 18:06 -29.70679 165.77613 40000 ft 447 kts 250°
2026-04-21 18:07 -29.73164 165.71102 40003 ft 447 kts 250°
2026-04-21 18:07 -29.75662 165.64541 40002 ft 448 kts 250°
2026-04-21 18:08 -29.78160 165.57972 40003 ft 448 kts 250°
2026-04-21 18:08 -29.80638 165.51443 40005 ft 448 kts 250°
2026-04-21 18:09 -29.83132 165.44860 40009 ft 449 kts 250°
2026-04-21 18:09 -29.85623 165.38274 40011 ft 449 kts 250°
2026-04-21 18:10 -29.88113 165.31676 40010 ft 449 kts 250°
2026-04-21 18:10 -29.90585 165.25115 40009 ft 449 kts 250°
2026-04-21 18:11 -29.93072 165.18503 40010 ft 450 kts 250°
2026-04-21 18:11 -29.95557 165.11885 40011 ft 450 kts 250°
2026-04-21 18:12 -29.98041 165.05258 40010 ft 450 kts 250°
2026-04-21 18:12 -30.00700 164.98761 40015 ft 453 kts 244°
2026-04-21 18:13 -30.03845 164.92456 40016 ft 454 kts 243°
2026-04-21 18:13 -30.07059 164.86186 40017 ft 454 kts 243°
2026-04-21 18:14 -30.11888 164.76765 40016 ft 454 kts 243°
2026-04-21 18:15 -30.15072 164.70521 40025 ft 454 kts 243°
2026-04-21 18:15 -30.18275 164.64221 40021 ft 455 kts 243°
2026-04-21 18:16 -30.21476 164.57917 40030 ft 455 kts 243°
2026-04-21 18:16 -30.24673 164.51610 40019 ft 455 kts 243°
2026-04-21 18:17 -30.27848 164.45338 40024 ft 455 kts 242°
2026-04-21 18:17 -30.31042 164.39019 40026 ft 455 kts 242°
2026-04-21 18:18 -30.34230 164.32700 40024 ft 455 kts 242°
2026-04-21 18:18 -30.37420 164.26367 40024 ft 455 kts 242°
2026-04-21 18:19 -30.40585 164.20075 40028 ft 455 kts 242°
2026-04-21 18:19 -30.43770 164.13732 40025 ft 455 kts 242°
2026-04-21 18:20 -30.46955 164.07379 40033 ft 456 kts 242°
2026-04-21 18:20 -30.50135 164.01025 40033 ft 456 kts 242°
2026-04-21 18:21 -30.53291 163.94710 40033 ft 456 kts 242°
2026-04-21 18:21 -30.56469 163.88340 40032 ft 456 kts 242°
2026-04-21 18:22 -30.59638 163.81978 40035 ft 456 kts 242°
2026-04-21 18:22 -30.62811 163.75598 40036 ft 456 kts 242°
2026-04-21 18:23 -30.65957 163.69259 40036 ft 456 kts 242°
2026-04-21 18:23 -30.69121 163.62877 40033 ft 456 kts 242°
2026-04-21 18:24 -30.72277 163.56499 40038 ft 456 kts 242°
2026-04-21 18:24 -30.75437 163.50103 40039 ft 456 kts 242°
2026-04-21 18:25 -30.78571 163.43748 40038 ft 456 kts 242°
2026-04-21 18:25 -30.81722 163.37349 40038 ft 456 kts 242°
2026-04-21 18:26 -30.84868 163.30950 40039 ft 456 kts 242°
2026-04-21 18:26 -30.87991 163.24586 40038 ft 456 kts 242°
2026-04-21 18:27 -30.91133 163.18175 40039 ft 456 kts 242°
2026-04-21 18:27 -30.94270 163.11761 40043 ft 456 kts 242°
2026-04-21 18:28 -30.97404 163.05345 40044 ft 456 kts 242°
2026-04-21 18:28 -31.00344 162.98868 40046 ft 455 kts 248°
2026-04-21 18:29 -31.02791 162.92084 40043 ft 454 kts 249°
2026-04-21 18:29 -31.05159 162.85250 40050 ft 454 kts 249°
2026-04-21 18:30 -31.07514 162.78414 40046 ft 454 kts 249°
2026-04-21 18:30 -31.09858 162.71624 40051 ft 454 kts 249°
2026-04-21 18:31 -31.12218 162.64789 40049 ft 454 kts 249°
2026-04-21 18:31 -31.14576 162.57949 40052 ft 454 kts 249°
2026-04-21 18:32 -31.16928 162.51111 40055 ft 454 kts 249°
2026-04-21 18:32 -31.19263 162.44310 40049 ft 454 kts 249°
2026-04-21 18:33 -31.21608 162.37464 40052 ft 454 kts 249°
2026-04-21 18:33 -31.23950 162.30615 40053 ft 454 kts 249°
2026-04-21 18:34 -31.26270 162.23814 40052 ft 454 kts 249°
2026-04-21 18:34 -31.28604 162.16958 40054 ft 454 kts 249°
2026-04-21 18:35 -31.30542 162.11255 40056 ft 454 kts 249°
2026-04-21 18:35 -31.33263 162.03231 40058 ft 454 kts 249°
2026-04-21 18:36 -31.35587 161.96364 40060 ft 454 kts 249°
2026-04-21 18:36 -31.37893 161.89536 40059 ft 454 kts 249°
2026-04-21 18:37 -31.40211 161.82657 40059 ft 454 kts 249°
2026-04-21 18:37 -31.42525 161.75774 40061 ft 454 kts 249°
2026-04-21 18:38 -31.44819 161.68938 40064 ft 454 kts 249°
2026-04-21 18:38 -31.47126 161.62051 40065 ft 454 kts 249°
2026-04-21 18:39 -31.49430 161.55157 40066 ft 454 kts 249°
2026-04-21 18:39 -31.51730 161.48260 40066 ft 454 kts 249°
2026-04-21 18:40 -31.54009 161.41410 40065 ft 454 kts 249°
2026-04-21 18:40 -31.55915 161.35673 40067 ft 455 kts 249°
2026-04-21 18:41 -31.58593 161.27592 40068 ft 455 kts 249°
2026-04-21 18:41 -31.60880 161.20677 40069 ft 455 kts 249°
2026-04-21 18:42 -31.63147 161.13806 40072 ft 455 kts 249°
2026-04-21 18:42 -31.65428 161.06879 40073 ft 455 kts 249°
2026-04-21 18:43 -31.67703 160.99956 40071 ft 455 kts 249°
2026-04-21 18:43 -31.69977 160.93020 40076 ft 455 kts 249°
2026-04-21 18:44 -31.72230 160.86134 40077 ft 455 kts 249°
2026-04-21 18:44 -31.74496 160.79193 40078 ft 455 kts 248°
2026-04-21 18:45 -31.76762 160.72238 40079 ft 455 kts 248°
2026-04-21 18:45 -31.79006 160.65335 40080 ft 455 kts 249°
2026-04-21 18:46 -31.81261 160.58385 40083 ft 455 kts 249°
2026-04-21 18:46 -31.83513 160.51426 40084 ft 455 kts 248°
2026-04-21 18:47 -31.85761 160.44465 40086 ft 455 kts 248°
2026-04-21 18:47 -31.87990 160.37550 40091 ft 455 kts 248°
2026-04-21 18:48 -31.90232 160.30578 40093 ft 455 kts 248°
2026-04-21 18:48 -31.92471 160.23600 40091 ft 456 kts 248°
2026-04-21 18:49 -31.94705 160.16623 40094 ft 456 kts 248°
2026-04-21 18:49 -31.96558 160.10823 40094 ft 456 kts 248°
2026-04-21 18:50 -31.99146 160.02706 40097 ft 456 kts 248°
2026-04-21 18:50 -32.01420 159.95735 40098 ft 455 kts 247°
2026-04-21 18:51 -32.03879 159.88864 40104 ft 455 kts 246°
2026-04-21 18:51 -32.06341 159.82043 40101 ft 455 kts 246°
2026-04-21 18:52 -32.08783 159.75172 40101 ft 455 kts 246°
2026-04-21 18:52 -32.11216 159.68258 40104 ft 455 kts 246°
2026-04-21 18:53 -32.13621 159.61398 40104 ft 455 kts 246°
2026-04-21 18:53 -32.16037 159.54495 40107 ft 455 kts 246°
2026-04-21 18:54 -32.18452 159.47583 40109 ft 455 kts 246°
2026-04-21 18:54 -32.20865 159.40666 40111 ft 455 kts 246°
2026-04-21 18:55 -32.22865 159.34920 40110 ft 455 kts 246°
2026-04-21 18:55 -32.25657 159.26882 40112 ft 455 kts 246°
2026-04-21 18:56 -32.28058 159.19955 40116 ft 455 kts 246°
2026-04-21 18:56 -32.30455 159.13024 40121 ft 455 kts 246°
2026-04-21 18:57 -32.32833 159.06134 40119 ft 456 kts 246°
2026-04-21 18:57 -32.35221 158.99200 40121 ft 455 kts 246°
2026-04-21 18:58 -32.37605 158.92261 40121 ft 455 kts 246°
2026-04-21 18:58 -32.39986 158.85320 40124 ft 455 kts 246°
2026-04-21 18:59 -32.42364 158.78370 40129 ft 455 kts 246°
2026-04-21 18:59 -32.44721 158.71469 40130 ft 455 kts 246°
2026-04-21 19:00 -32.47089 158.64518 40131 ft 455 kts 246°
2026-04-21 19:00 -32.49455 158.57562 40129 ft 455 kts 246°
2026-04-21 19:01 -32.51798 158.50657 40133 ft 455 kts 246°
2026-04-21 19:01 -32.54152 158.43702 40137 ft 455 kts 246°
2026-04-21 19:02 -32.56502 158.36746 40140 ft 455 kts 246°
2026-04-21 19:02 -32.58849 158.29783 40139 ft 455 kts 246°
2026-04-21 19:03 -32.61175 158.22868 40142 ft 454 kts 246°
2026-04-21 19:03 -32.63512 158.15906 40143 ft 454 kts 246°
2026-04-21 19:04 -32.65844 158.08945 40143 ft 454 kts 246°
2026-04-21 19:04 -32.68156 158.02028 40150 ft 454 kts 246°
2026-04-21 19:05 -32.70477 157.95066 40150 ft 453 kts 246°
2026-04-21 19:05 -32.72796 157.88099 40150 ft 454 kts 246°
2026-04-21 19:06 -32.75108 157.81134 40151 ft 453 kts 246°
2026-04-21 19:06 -32.77418 157.74163 40147 ft 453 kts 246°
2026-04-21 19:07 -32.79706 157.67242 40156 ft 453 kts 246°
2026-04-21 19:07 -32.82005 157.60273 40157 ft 453 kts 246°
2026-04-21 19:08 -32.84299 157.53303 40161 ft 453 kts 246°
2026-04-21 19:08 -32.86590 157.46326 40163 ft 452 kts 245°
2026-04-21 19:09 -32.88860 157.39400 40159 ft 452 kts 245°
2026-04-21 19:09 -32.91140 157.32428 40161 ft 452 kts 245°
2026-04-21 19:10 -32.93417 157.25449 40169 ft 452 kts 245°
2026-04-21 19:10 -32.95672 157.18519 40170 ft 452 kts 245°
2026-04-21 19:11 -32.97935 157.11553 40170 ft 451 kts 245°
2026-04-21 19:11 -33.00194 157.04583 40177 ft 451 kts 245°
2026-04-21 19:12 -33.02450 156.97608 40187 ft 451 kts 245°
2026-04-21 19:12 -33.04698 156.90639 40176 ft 450 kts 245°
2026-04-21 19:13 -33.06927 156.83715 40186 ft 450 kts 245°
2026-04-21 19:13 -33.09165 156.76747 40182 ft 450 kts 245°
2026-04-21 19:14 -33.11398 156.69781 40188 ft 449 kts 245°
2026-04-21 19:14 -33.13610 156.62864 40186 ft 449 kts 245°
2026-04-21 19:15 -33.15830 156.55905 40186 ft 449 kts 245°
2026-04-21 19:15 -33.18047 156.48941 40187 ft 449 kts 245°
2026-04-21 19:16 -33.20259 156.41979 40187 ft 448 kts 245°
2026-04-21 19:16 -33.22452 156.35059 40191 ft 448 kts 245°
2026-04-21 19:17 -33.25751 156.24620 40196 ft 448 kts 245°
2026-04-21 19:17 -33.27943 156.17664 40197 ft 447 kts 245°
2026-04-21 19:18 -33.30117 156.10751 40195 ft 447 kts 245°
2026-04-21 19:18 -33.32299 156.03796 40196 ft 446 kts 245°
2026-04-21 19:19 -33.34473 155.96848 40200 ft 446 kts 245°
2026-04-21 19:19 -33.36629 155.89945 40206 ft 446 kts 245°
2026-04-21 19:20 -33.38796 155.82989 40208 ft 446 kts 245°
2026-04-21 19:20 -33.40954 155.76047 40205 ft 445 kts 245°
2026-04-21 19:21 -33.43110 155.69097 40214 ft 445 kts 245°
2026-04-21 19:21 -33.45244 155.62200 40213 ft 445 kts 245°
2026-04-21 19:22 -33.47389 155.55252 40215 ft 444 kts 245°
2026-04-21 19:22 -33.49528 155.48306 40222 ft 444 kts 245°
2026-04-21 19:23 -33.51662 155.41361 40218 ft 444 kts 245°
2026-04-21 19:23 -33.53776 155.34467 40221 ft 444 kts 245°
2026-04-21 19:24 -33.55900 155.27525 40224 ft 443 kts 245°
2026-04-21 19:24 -33.58019 155.20582 40227 ft 443 kts 245°
2026-04-21 19:25 -33.60133 155.13638 40228 ft 443 kts 245°
2026-04-21 19:25 -33.62227 155.06744 40229 ft 443 kts 245°
2026-04-21 19:26 -33.64332 154.99800 40228 ft 443 kts 245°
2026-04-21 19:26 -33.66433 154.92851 40231 ft 443 kts 246°
2026-04-21 19:27 -33.68515 154.85950 40234 ft 443 kts 246°
2026-04-21 19:27 -33.70607 154.78998 40246 ft 442 kts 246°
2026-04-21 19:28 -33.72693 154.72050 40234 ft 442 kts 246°
2026-04-21 19:28 -33.74776 154.65096 40238 ft 442 kts 246°
2026-04-21 19:29 -33.76841 154.58185 40238 ft 442 kts 246°
2026-04-21 19:29 -33.78914 154.51233 40241 ft 442 kts 246°
2026-04-21 19:30 -33.80985 154.44271 40240 ft 442 kts 246°
2026-04-21 19:30 -33.83051 154.37307 40247 ft 442 kts 246°
2026-04-21 19:31 -33.85098 154.30391 40246 ft 442 kts 246°
2026-04-21 19:31 -33.87158 154.23416 40249 ft 442 kts 246°
2026-04-21 19:32 -33.89210 154.16452 40254 ft 442 kts 246°
2026-04-21 19:32 -33.90877 154.09298 40257 ft 448 kts 255°
2026-04-21 19:33 -33.91845 154.01932 40255 ft 449 kts 256°
2026-04-21 19:33 -33.92711 153.94485 40260 ft 449 kts 257°
2026-04-21 19:34 -33.93569 153.87030 40259 ft 450 kts 257°
2026-04-21 19:34 -33.94438 153.79570 40262 ft 450 kts 257°
2026-04-21 19:35 -33.95738 153.68437 40266 ft 450 kts 257°
2026-04-21 19:36 -33.96602 153.60985 40266 ft 450 kts 257°
2026-04-21 19:36 -33.97465 153.53503 40268 ft 450 kts 257°
2026-04-21 19:37 -33.98323 153.46023 40269 ft 451 kts 257°
2026-04-21 19:37 -33.99176 153.38542 40268 ft 451 kts 257°
2026-04-21 19:38 -34.00019 153.31105 40269 ft 451 kts 257°
2026-04-21 19:38 -34.00722 153.24878 40271 ft 451 kts 257°
2026-04-21 19:39 -34.01705 153.16116 40272 ft 452 kts 257°
2026-04-21 19:39 -34.02537 153.08639 39880 ft 448 kts 257°
2026-04-21 19:39 -34.02946 153.04952 39166 ft 451 kts 257°
2026-04-21 19:40 -34.03364 153.01193 38321 ft 453 kts 257°
2026-04-21 19:40 -34.03774 152.97462 37051 ft 448 kts 257°
2026-04-21 19:40 -34.04183 152.93735 35488 ft 450 kts 257°
2026-04-21 19:40 -34.04595 152.89989 33864 ft 452 kts 256°
2026-04-21 19:41 -34.05010 152.86217 31999 ft 455 kts 256°
2026-04-21 19:41 -34.05428 152.82418 30058 ft 459 kts 256°
2026-04-21 19:41 -34.05849 152.78581 28091 ft 461 kts 257°
2026-04-21 19:41 -34.06251 152.74845 27287 ft 451 kts 257°
2026-04-21 19:42 -34.06653 152.71103 26973 ft 448 kts 257°
2026-04-21 19:42 -34.07034 152.67483 26448 ft 422 kts 257°
2026-04-21 19:42 -34.07403 152.63984 25872 ft 424 kts 257°
2026-04-21 19:42 -34.07792 152.60418 25230 ft 431 kts 257°
2026-04-21 19:43 -34.08037 152.56808 24633 ft 434 kts 264°
2026-04-21 19:43 -34.07849 152.53162 24038 ft 437 kts 270°
2026-04-21 19:43 -34.07536 152.49524 23348 ft 436 kts 270°
2026-04-21 19:43 -34.07211 152.45948 22710 ft 433 kts 271°
2026-04-21 19:44 -34.06877 152.42351 22085 ft 430 kts 271°
2026-04-21 19:44 -34.06542 152.38774 21462 ft 428 kts 271°
2026-04-21 19:44 -34.06208 152.35224 20830 ft 426 kts 271°
2026-04-21 19:44 -34.05873 152.31680 20209 ft 424 kts 272°
2026-04-21 19:45 -34.05537 152.28150 19580 ft 423 kts 272°
2026-04-21 19:45 -34.05201 152.24631 18935 ft 422 kts 272°
2026-04-21 19:45 -34.04869 152.21159 18259 ft 422 kts 272°
2026-04-21 19:45 -34.04532 152.17656 17562 ft 420 kts 273°
2026-04-21 19:46 -34.04196 152.14174 16911 ft 417 kts 273°
2026-04-21 19:46 -34.03861 152.10717 16267 ft 414 kts 273°
2026-04-21 19:46 -34.03528 152.07280 15628 ft 411 kts 273°
2026-04-21 19:46 -34.03194 152.03864 15007 ft 409 kts 274°
2026-04-21 19:47 -34.02854 152.00475 14382 ft 407 kts 274°
2026-04-21 19:47 -34.02513 151.97102 13701 ft 404 kts 274°
2026-04-21 19:47 -34.02177 151.93796 13056 ft 401 kts 274°
2026-04-21 19:47 -34.01840 151.90480 12418 ft 397 kts 274°
2026-04-21 19:48 -34.01508 151.87210 11797 ft 394 kts 275°
2026-04-21 19:48 -34.01174 151.83931 11189 ft 390 kts 275°
2026-04-21 19:48 -34.00848 151.80745 11022 ft 374 kts 275°
2026-04-21 19:48 -34.00536 151.77711 10925 ft 357 kts 275°
2026-04-21 19:49 -34.00236 151.74812 10817 ft 341 kts 274°
2026-04-21 19:49 -33.99953 151.72061 10654 ft 325 kts 274°
2026-04-21 19:49 -33.99687 151.69465 10306 ft 304 kts 274°
2026-04-21 19:49 -33.99434 151.67020 10101 ft 283 kts 274°
2026-04-21 19:50 -33.99274 151.65474 10010 ft 278 kts 274°
2026-04-21 19:50 -33.98953 151.62307 9675 ft 295 kts 274°
2026-04-21 19:50 -33.98701 151.59833 9544 ft 298 kts 274°
2026-04-21 19:50 -33.98444 151.57360 9109 ft 298 kts 275°
2026-04-21 19:51 -33.98191 151.54895 8725 ft 295 kts 275°
2026-04-21 19:51 -33.97938 151.52485 8482 ft 293 kts 275°
2026-04-21 19:51 -33.97682 151.50054 8235 ft 292 kts 275°
2026-04-21 19:51 -33.97428 151.47635 8011 ft 291 kts 275°
2026-04-21 19:52 -33.97175 151.45224 7779 ft 289 kts 275°
2026-04-21 19:52 -33.96923 151.42831 7549 ft 288 kts 275°
2026-04-21 19:52 -33.96625 151.40452 7330 ft 288 kts 281°
2026-04-21 19:52 -33.95756 151.38285 7139 ft 290 kts 308°
2026-04-21 19:53 -33.94206 151.36756 6946 ft 289 kts 334°
2026-04-21 19:53 -33.92341 151.35966 6765 ft 288 kts 346°
2026-04-21 19:53 -33.90395 151.35391 6550 ft 288 kts 348°
2026-04-21 19:53 -33.88437 151.34901 6353 ft 287 kts 350°
2026-04-21 19:54 -33.86482 151.34435 6151 ft 286 kts 350°
2026-04-21 19:54 -33.84536 151.33973 5944 ft 286 kts 349°
2026-04-21 19:54 -33.82588 151.33512 5739 ft 285 kts 350°
2026-04-21 19:54 -33.80644 151.33052 5545 ft 284 kts 350°
2026-04-21 19:55 -33.78699 151.32591 5352 ft 284 kts 350°
2026-04-21 19:55 -33.76790 151.32139 5150 ft 283 kts 349°
2026-04-21 19:55 -33.74902 151.31491 4943 ft 283 kts 336°
2026-04-21 19:55 -33.73286 151.30209 4719 ft 280 kts 314°
2026-04-21 19:56 -33.72282 151.28246 4496 ft 275 kts 284°
2026-04-21 19:56 -33.72182 151.26003 4256 ft 268 kts 255°
2026-04-21 19:56 -33.72699 151.23884 3985 ft 264 kts 249°
2026-04-21 19:56 -33.73255 151.21778 3715 ft 262 kts 250°
2026-04-21 19:57 -33.73762 151.19678 3394 ft 262 kts 251°
2026-04-21 19:57 -33.74249 151.17608 3086 ft 259 kts 249°
2026-04-21 19:57 -33.75093 151.15743 2921 ft 252 kts 225°
2026-04-21 19:57 -33.76485 151.14633 2805 ft 234 kts 196°
2026-04-21 19:58 -33.78037 151.14480 2736 ft 218 kts 172°
2026-04-21 19:58 -33.79483 151.14798 2666 ft 205 kts 168°
2026-04-21 19:58 -33.80834 151.15156 2590 ft 194 kts 167°
2026-04-21 19:58 -33.82119 151.15488 2521 ft 185 kts 168°
2026-04-21 19:59 -33.83359 151.15808 2409 ft 186 kts 168°
2026-04-21 19:59 -33.84625 151.16136 2165 ft 185 kts 168°
2026-04-21 19:59 -33.85881 151.16462 1906 ft 183 kts 168°
2026-04-21 19:59 -33.87104 151.16781 1697 ft 178 kts 168°
2026-04-21 20:00 -33.88299 151.17091 1429 ft 173 kts 168°
2026-04-21 20:00 -33.89439 151.17388 1206 ft 162 kts 169°
2026-04-21 20:00 -33.90495 151.17661 998 ft 150 kts 169°
2026-04-21 20:00 -33.91483 151.17918 788 ft 139 kts 169°
2026-04-21 20:01 -33.92367 151.18148 627 ft 128 kts 167°
2026-04-21 20:01 -33.93227 151.18372 451 ft 126 kts 166°
2026-04-21 20:01 -33.94082 151.18596 293 ft 126 kts 166°
2026-04-21 20:01 -33.94941 151.18821 116 ft 127 kts 165°
2026-04-21 20:02 -33.95793 151.19047 34 ft 116 kts 168°
2026-04-21 20:02 -33.96359 151.19190 31 ft 42 kts 168°
2026-04-21 20:02 -33.96569 151.19214 31 ft 17 kts 189°
2026-04-21 20:02 -33.96662 151.19187 32 ft 10 kts 198°
2026-04-21 20:03 -33.96705 151.19146 34 ft 6 kts 248°
2026-04-21 20:03 -33.96695 151.19094 36 ft 6 kts 314°
2026-04-21 20:03 -33.96639 151.19062 36 ft 15 kts 343°
2026-04-21 20:03 -33.96530 151.19032 36 ft 17 kts 347°
2026-04-21 20:04 -33.96403 151.19000 36 ft 20 kts 348°
2026-04-21 20:04 -33.96259 151.18963 36 ft 22 kts 348°
2026-04-21 20:04 -33.96098 151.18922 36 ft 25 kts 348°
2026-04-21 20:04 -33.95922 151.18877 36 ft 27 kts 348°
2026-04-21 20:05 -33.95731 151.18828 36 ft 29 kts 348°
2026-04-21 20:05 -33.95529 151.18776 36 ft 31 kts 348°
2026-04-21 20:05 -33.95313 151.18719 36 ft 32 kts 345°
2026-04-21 20:05 -33.95165 151.18600 36 ft 18 kts 315°
2026-04-21 20:06 -33.95109 151.18464 37 ft 19 kts 269°
2026-04-21 20:06 -33.95138 151.18297 37 ft 21 kts 258°
2026-04-21 20:06 -33.95172 151.18113 37 ft 24 kts 257°
2026-04-21 20:06 -33.95208 151.17913 36 ft 21 kts 257°
2026-04-21 20:07 -33.95212 151.17895 36 ft 0 kts 257°
2026-04-21 20:07 -33.95212 151.17893 36 ft 0 kts 257°
2026-04-21 20:08 -33.95211 151.17890 36 ft 2 kts 272°
2026-04-21 20:08 -33.95182 151.17894 36 ft 11 kts 25°
2026-04-21 20:08 -33.95045 151.17931 36 ft 25 kts 348°
2026-04-21 20:08 -33.94870 151.17885 36 ft 27 kts 347°
2026-04-21 20:09 -33.94680 151.17834 36 ft 29 kts 347°
2026-04-21 20:09 -33.94475 151.17779 36 ft 31 kts 346°
2026-04-21 20:09 -33.94260 151.17716 34 ft 33 kts 347°
2026-04-21 20:09 -33.94095 151.17628 34 ft 20 kts 291°
2026-04-21 20:10 -33.94113 151.17477 33 ft 19 kts 255°
2026-04-21 20:10 -33.94157 151.17278 34 ft 29 kts 255°
2026-04-21 20:10 -33.94213 151.17042 35 ft 30 kts 254°
2026-04-21 20:10 -33.94225 151.16872 34 ft 16 kts 315°
2026-04-21 20:11 -33.94123 151.16834 36 ft 13 kts 346°
2026-04-21 20:11 -33.94082 151.16785 36 ft 8 kts 286°
2026-04-21 20:11 -33.94090 151.16704 36 ft 6 kts 254°
2026-04-21 20:11 -33.94091 151.16656 36 ft 3 kts 308°
2026-04-21 20:12 -33.94057 151.16631 36 ft 3 kts 337°
2026-04-21 20:12 -33.94035 151.16623 36 ft 3 kts 345°
2026-04-21 20:12 -33.94027 151.16621 36 ft 0 kts 344°
2026-04-21 20:12 -33.94015 151.16617 36 ft 0 kts 344°